Time,TemperatureF,DewpointF,PressureIn,WindDirection,WindDirectionDegrees,WindSpeedMPH,WindSpeedGustMPH,Humidity,HourlyPrecipIn,Conditions,Clouds,dailyrainin,SoftwareType,DateUTC
2013-02-27 00:00:00,75.7,73.2,29.87,South,178,0.0,0.0,92,0.00,,,0.00,Wunderground v.1.15,2013-02-27 05:00:00,
2013-02-27 00:01:00,75.7,73.2,29.87,South,178,0.0,0.0,92,0.00,,,0.00,Wunderground v.1.15,2013-02-27 05:01:00,
2013-02-27 00:04:00,75.7,73.5,29.87,South,178,0.0,0.0,93,0.00,,,0.00,Wunderground v.1.15,2013-02-27 05:04:00,
2013-02-27 00:06:00,75.7,73.2,29.87,South,178,0.0,0.0,92,0.00,,,0.00,Wunderground v.1.15,2013-02-27 05:06:00,
2013-02-27 00:09:00,75.6,73.1,29.87,South,178,0.0,0.0,92,0.00,,,0.00,Wunderground v.1.15,2013-02-27 05:09:00,
2013-02-27 00:10:00,75.7,73.2,29.87,South,178,0.0,0.0,92,0.00,,,0.00,Wunderground v.1.15,2013-02-27 05:10:00,
2013-02-27 00:13:00,75.6,73.4,29.86,South,178,0.0,0.0,93,0.00,,,0.00,Wunderground v.1.15,2013-02-27 05:13:00,
2013-02-27 00:14:00,75.6,73.4,29.86,South,178,0.0,0.0,93,0.00,,,0.00,Wunderground v.1.15,2013-02-27 05:14:00,
2013-02-27 00:18:00,75.6,73.4,29.87,South,180,0.0,0.0,93,0.00,,,0.00,Wunderground v.1.15,2013-02-27 05:18:00,
2013-02-27 00:20:00,75.7,73.5,29.87,South,180,0.0,0.0,93,0.00,,,0.00,Wunderground v.1.15,2013-02-27 05:20:00,
2013-02-27 00:21:00,75.7,73.5,29.87,South,180,0.0,0.0,93,0.00,,,0.00,Wunderground v.1.15,2013-02-27 05:21:00,
2013-02-27 00:24:00,75.7,73.5,29.86,South,180,0.0,0.0,93,0.00,,,0.00,Wunderground v.1.15,2013-02-27 05:24:00,
2013-02-27 00:25:00,75.7,73.5,29.87,South,180,0.0,0.0,93,0.00,,,0.00,Wunderground v.1.15,2013-02-27 05:25:00,
2013-02-27 00:27:00,75.7,73.5,29.87,South,180,0.0,0.0,93,0.00,,,0.00,Wunderground v.1.15,2013-02-27 05:27:00,
2013-02-27 00:29:00,75.6,73.4,29.87,South,180,0.0,0.0,93,0.00,,,0.00,Wunderground v.1.15,2013-02-27 05:29:00,
2013-02-27 00:30:00,75.6,73.4,29.87,South,180,0.0,0.0,93,0.00,,,0.00,Wunderground v.1.15,2013-02-27 05:30:00,
2013-02-27 00:33:00,75.6,73.4,29.87,South,180,0.0,0.0,93,0.00,,,0.00,Wunderground v.1.15,2013-02-27 05:33:00,
2013-02-27 00:35:00,75.7,73.5,29.87,South,180,0.0,0.0,93,0.00,,,0.00,Wunderground v.1.15,2013-02-27 05:35:00,
2013-02-27 00:36:00,75.7,73.5,29.86,South,180,0.0,0.0,93,0.00,,,0.00,Wunderground v.1.15,2013-02-27 05:36:00,
2013-02-27 00:38:00,75.7,73.5,29.87,South,180,0.0,0.0,93,0.00,,,0.00,Wunderground v.1.15,2013-02-27 05:38:00,
2013-02-27 00:39:00,75.7,73.5,29.86,South,180,0.0,0.0,93,0.00,,,0.00,Wunderground v.1.15,2013-02-27 05:39:00,
2013-02-27 00:41:00,75.7,73.5,29.86,South,180,0.0,0.0,93,0.00,,,0.00,Wunderground v.1.15,2013-02-27 05:41:00,
2013-02-27 00:42:00,75.7,73.5,29.86,South,180,0.0,0.0,93,0.00,,,0.00,Wunderground v.1.15,2013-02-27 05:42:00,
2013-02-27 00:43:00,75.7,73.5,29.86,South,180,0.0,0.0,93,0.00,,,0.00,Wunderground v.1.15,2013-02-27 05:43:00,
2013-02-27 00:46:00,75.7,73.5,29.86,South,180,0.0,0.0,93,0.00,,,0.00,Wunderground v.1.15,2013-02-27 05:46:00,
2013-02-27 00:48:00,75.7,73.5,29.86,South,180,0.0,0.0,93,0.00,,,0.00,Wunderground v.1.15,2013-02-27 05:48:00,
2013-02-27 00:50:00,75.6,73.4,29.86,South,180,0.0,0.0,93,0.00,,,0.00,Wunderground v.1.15,2013-02-27 05:50:00,
2013-02-27 00:52:00,75.6,73.4,29.86,South,180,0.0,0.0,93,0.00,,,0.00,Wunderground v.1.15,2013-02-27 05:52:00,
2013-02-27 00:53:00,75.6,73.4,29.86,South,180,0.0,0.0,93,0.00,,,0.00,Wunderground v.1.15,2013-02-27 05:53:00,
2013-02-27 00:57:00,75.5,73.3,29.86,South,180,0.0,0.0,93,0.00,,,0.00,Wunderground v.1.15,2013-02-27 05:57:00,
2013-02-27 00:58:00,75.5,73.3,29.86,South,180,0.0,0.0,93,0.00,,,0.00,Wunderground v.1.15,2013-02-27 05:58:00,
2013-02-27 01:00:00,75.4,73.2,29.86,South,180,0.0,0.0,93,0.00,,,0.00,Wunderground v.1.15,2013-02-27 06:00:00,
2013-02-27 01:06:00,75.5,73.3,29.86,South,180,0.0,0.0,93,0.00,,,0.00,Wunderground v.1.15,2013-02-27 06:06:00,
2013-02-27 01:07:00,75.4,73.2,29.86,South,180,0.0,0.0,93,0.00,,,0.00,Wunderground v.1.15,2013-02-27 06:07:00,
2013-02-27 01:08:00,75.4,73.2,29.86,South,180,0.0,0.0,93,0.00,,,0.00,Wunderground v.1.15,2013-02-27 06:08:00,
2013-02-27 01:12:00,75.3,73.1,29.85,South,180,0.0,0.0,93,0.00,,,0.00,Wunderground v.1.15,2013-02-27 06:12:00,
2013-02-27 01:14:00,75.2,73.0,29.85,South,180,0.0,0.0,93,0.00,,,0.00,Wunderground v.1.15,2013-02-27 06:14:00,
2013-02-27 01:17:00,75.2,73.0,29.85,South,180,0.0,0.0,93,0.00,,,0.00,Wunderground v.1.15,2013-02-27 06:17:00,
2013-02-27 01:20:00,75.2,73.0,29.85,South,180,0.0,0.0,93,0.00,,,0.00,Wunderground v.1.15,2013-02-27 06:20:00,
2013-02-27 01:21:00,75.2,73.0,29.85,South,180,0.0,0.0,93,0.00,,,0.00,Wunderground v.1.15,2013-02-27 06:21:00,
2013-02-27 01:26:00,75.2,73.0,29.85,South,180,0.0,0.0,93,0.00,,,0.00,Wunderground v.1.15,2013-02-27 06:26:00,
2013-02-27 01:27:00,75.2,73.0,29.85,South,180,0.0,0.0,93,0.00,,,0.00,Wunderground v.1.15,2013-02-27 06:27:00,
2013-02-27 01:30:00,75.2,73.0,29.85,South,180,0.0,0.0,93,0.00,,,0.00,Wunderground v.1.15,2013-02-27 06:30:00,
2013-02-27 01:32:00,75.2,73.0,29.85,South,180,0.0,0.0,93,0.00,,,0.00,Wunderground v.1.15,2013-02-27 06:32:00,
2013-02-27 01:33:00,75.2,73.0,29.85,South,180,0.0,0.0,93,0.00,,,0.00,Wunderground v.1.15,2013-02-27 06:33:00,
2013-02-27 01:36:00,75.2,73.0,29.85,South,180,0.0,0.0,93,0.00,,,0.00,Wunderground v.1.15,2013-02-27 06:36:00,
2013-02-27 01:37:00,75.1,72.9,29.85,South,180,0.0,0.0,93,0.00,,,0.00,Wunderground v.1.15,2013-02-27 06:37:00,
2013-02-27 01:38:00,75.1,72.9,29.85,South,180,0.0,0.0,93,0.00,,,0.00,Wunderground v.1.15,2013-02-27 06:38:00,
2013-02-27 01:41:00,75.0,73.2,29.85,South,180,0.0,0.0,94,0.00,,,0.00,Wunderground v.1.15,2013-02-27 06:41:00,
2013-02-27 01:44:00,75.0,73.2,29.85,South,180,0.0,0.0,94,0.00,,,0.00,Wunderground v.1.15,2013-02-27 06:44:00,
2013-02-27 01:45:00,75.0,73.2,29.85,South,180,0.0,0.0,94,0.00,,,0.00,Wunderground v.1.15,2013-02-27 06:45:00,
2013-02-27 01:46:00,75.0,73.2,29.85,South,180,0.0,0.0,94,0.00,,,0.00,Wunderground v.1.15,2013-02-27 06:46:00,
2013-02-27 01:48:00,75.0,73.2,29.85,South,180,0.0,0.0,94,0.00,,,0.00,Wunderground v.1.15,2013-02-27 06:48:00,
2013-02-27 01:52:00,74.8,72.6,29.85,South,180,0.0,0.0,93,0.00,,,0.00,Wunderground v.1.15,2013-02-27 06:52:00,
2013-02-27 01:54:00,74.8,73.0,29.85,South,180,0.0,0.0,94,0.00,,,0.00,Wunderground v.1.15,2013-02-27 06:54:00,
2013-02-27 01:55:00,74.8,73.0,29.85,South,180,0.0,0.0,94,0.00,,,0.00,Wunderground v.1.15,2013-02-27 06:55:00,
2013-02-27 01:57:00,74.8,73.0,29.85,South,180,0.0,0.0,94,0.00,,,0.00,Wunderground v.1.15,2013-02-27 06:57:00,
2013-02-27 02:01:00,74.7,72.9,29.85,South,180,0.0,0.0,94,0.00,,,0.00,Wunderground v.1.15,2013-02-27 07:01:00,
2013-02-27 02:02:00,74.7,72.9,29.85,South,180,0.0,0.0,94,0.00,,,0.00,Wunderground v.1.15,2013-02-27 07:02:00,
2013-02-27 02:06:00,74.7,72.9,29.85,South,180,0.0,0.0,94,0.00,,,0.00,Wunderground v.1.15,2013-02-27 07:06:00,
2013-02-27 02:08:00,74.7,72.9,29.85,South,180,0.0,0.0,94,0.00,,,0.00,Wunderground v.1.15,2013-02-27 07:08:00,
2013-02-27 02:11:00,74.7,72.9,29.85,South,180,0.0,0.0,94,0.00,,,0.00,Wunderground v.1.15,2013-02-27 07:11:00,
2013-02-27 02:12:00,74.7,72.9,29.85,South,180,0.0,0.0,94,0.00,,,0.00,Wunderground v.1.15,2013-02-27 07:12:00,
2013-02-27 02:14:00,74.7,72.9,29.85,South,180,0.0,0.0,94,0.00,,,0.00,Wunderground v.1.15,2013-02-27 07:14:00,
2013-02-27 02:16:00,74.7,72.9,29.85,South,180,0.0,0.0,94,0.00,,,0.00,Wunderground v.1.15,2013-02-27 07:16:00,
2013-02-27 02:17:00,74.7,72.9,29.85,South,180,0.0,0.0,94,0.00,,,0.00,Wunderground v.1.15,2013-02-27 07:17:00,
2013-02-27 02:20:00,74.8,73.0,29.85,South,180,0.0,0.0,94,0.00,,,0.00,Wunderground v.1.15,2013-02-27 07:20:00,
2013-02-27 02:21:00,74.8,73.0,29.85,South,180,0.0,0.0,94,0.00,,,0.00,Wunderground v.1.15,2013-02-27 07:21:00,
2013-02-27 02:22:00,74.8,73.0,29.85,South,180,0.0,0.0,94,0.00,,,0.00,Wunderground v.1.15,2013-02-27 07:22:00,
2013-02-27 02:26:00,74.8,73.0,29.84,South,180,0.0,0.0,94,0.00,,,0.00,Wunderground v.1.15,2013-02-27 07:26:00,
2013-02-27 02:27:00,74.8,73.0,29.84,South,180,0.0,0.0,94,0.00,,,0.00,Wunderground v.1.15,2013-02-27 07:27:00,
2013-02-27 02:32:00,74.8,73.0,29.84,South,180,0.0,0.0,94,0.00,,,0.00,Wunderground v.1.15,2013-02-27 07:32:00,
2013-02-27 02:33:00,74.7,72.9,29.84,South,180,0.0,0.0,94,0.00,,,0.00,Wunderground v.1.15,2013-02-27 07:33:00,
2013-02-27 02:37:00,74.7,72.9,29.84,South,180,0.0,0.0,94,0.00,,,0.00,Wunderground v.1.15,2013-02-27 07:37:00,
2013-02-27 02:38:00,74.6,72.8,29.84,South,180,0.0,0.0,94,0.00,,,0.00,Wunderground v.1.15,2013-02-27 07:38:00,
2013-02-27 02:39:00,74.6,72.8,29.84,South,180,0.0,0.0,94,0.00,,,0.00,Wunderground v.1.15,2013-02-27 07:39:00,
2013-02-27 02:42:00,74.6,72.8,29.83,South,180,0.0,0.0,94,0.00,,,0.00,Wunderground v.1.15,2013-02-27 07:42:00,
2013-02-27 02:43:00,74.6,72.8,29.83,South,180,0.0,0.0,94,0.00,,,0.00,Wunderground v.1.15,2013-02-27 07:43:00,
2013-02-27 02:45:00,74.6,73.1,29.83,South,180,0.0,0.0,95,0.00,,,0.00,Wunderground v.1.15,2013-02-27 07:45:00,
2013-02-27 02:47:00,74.5,73.0,29.83,South,180,0.0,0.0,95,0.00,,,0.00,Wunderground v.1.15,2013-02-27 07:47:00,
2013-02-27 02:48:00,74.5,73.0,29.83,South,180,0.0,0.0,95,0.00,,,0.00,Wunderground v.1.15,2013-02-27 07:48:00,
2013-02-27 02:49:00,74.5,73.0,29.83,South,180,0.0,0.0,95,0.00,,,0.00,Wunderground v.1.15,2013-02-27 07:49:00,
2013-02-27 02:50:00,74.5,73.0,29.83,South,180,0.0,0.0,95,0.00,,,0.00,Wunderground v.1.15,2013-02-27 07:50:00,
2013-02-27 02:53:00,74.5,73.0,29.84,South,180,0.0,0.0,95,0.00,,,0.00,Wunderground v.1.15,2013-02-27 07:53:00,
2013-02-27 02:54:00,74.5,73.0,29.84,South,180,0.0,0.0,95,0.00,,,0.00,Wunderground v.1.15,2013-02-27 07:54:00,
2013-02-27 02:55:00,74.6,73.1,29.84,South,180,0.0,0.0,95,0.00,,,0.00,Wunderground v.1.15,2013-02-27 07:55:00,
2013-02-27 02:58:00,74.6,73.1,29.84,South,180,0.0,0.0,95,0.00,,,0.00,Wunderground v.1.15,2013-02-27 07:58:00,
2013-02-27 02:59:00,74.6,73.1,29.84,South,180,0.0,0.0,95,0.00,,,0.00,Wunderground v.1.15,2013-02-27 07:59:00,
2013-02-27 03:01:00,74.6,73.1,29.83,South,180,0.0,0.0,95,0.00,,,0.00,Wunderground v.1.15,2013-02-27 08:01:00,
2013-02-27 03:04:00,74.7,73.2,29.83,South,180,0.0,0.0,95,0.00,,,0.00,Wunderground v.1.15,2013-02-27 08:04:00,
2013-02-27 03:06:00,74.7,73.2,29.84,South,181,0.0,0.0,95,0.00,,,0.00,Wunderground v.1.15,2013-02-27 08:06:00,
2013-02-27 03:09:00,74.7,73.2,29.84,SW,214,0.0,0.0,95,0.00,,,0.00,Wunderground v.1.15,2013-02-27 08:09:00,
2013-02-27 03:11:00,74.7,73.2,29.84,West,262,0.0,0.0,95,0.00,,,0.00,Wunderground v.1.15,2013-02-27 08:11:00,
2013-02-27 03:14:00,74.7,73.2,29.84,WSW,255,0.0,0.0,95,0.00,,,0.00,Wunderground v.1.15,2013-02-27 08:14:00,
2013-02-27 03:15:00,74.7,73.2,29.84,WSW,255,0.0,0.0,95,0.00,,,0.00,Wunderground v.1.15,2013-02-27 08:15:00,
2013-02-27 03:16:00,74.7,73.2,29.84,WSW,255,0.0,0.0,95,0.00,,,0.00,Wunderground v.1.15,2013-02-27 08:16:00,
2013-02-27 03:19:00,74.7,73.2,29.84,West,259,0.0,0.0,95,0.00,,,0.00,Wunderground v.1.15,2013-02-27 08:19:00,
2013-02-27 03:20:00,74.7,73.2,29.84,West,259,0.0,0.0,95,0.00,,,0.00,Wunderground v.1.15,2013-02-27 08:20:00,
2013-02-27 03:22:00,74.7,73.2,29.84,West,260,0.0,0.0,95,0.00,,,0.00,Wunderground v.1.15,2013-02-27 08:22:00,
2013-02-27 03:25:00,74.7,73.2,29.84,West,260,0.0,0.0,95,0.00,,,0.00,Wunderground v.1.15,2013-02-27 08:25:00,
2013-02-27 03:26:00,74.7,73.2,29.84,West,260,0.0,0.0,95,0.00,,,0.00,Wunderground v.1.15,2013-02-27 08:26:00,
2013-02-27 03:28:00,74.7,73.2,29.84,West,260,0.0,0.0,95,0.00,,,0.00,Wunderground v.1.15,2013-02-27 08:28:00,
2013-02-27 03:30:00,74.7,73.2,29.84,West,260,0.0,0.0,95,0.00,,,0.00,Wunderground v.1.15,2013-02-27 08:30:00,
2013-02-27 03:32:00,74.7,73.2,29.84,West,259,0.0,0.0,95,0.00,,,0.00,Wunderground v.1.15,2013-02-27 08:32:00,
2013-02-27 03:33:00,74.7,73.2,29.84,West,259,0.0,0.0,95,0.00,,,0.00,Wunderground v.1.15,2013-02-27 08:33:00,
2013-02-27 03:36:00,74.6,73.1,29.84,West,259,0.0,0.0,95,0.00,,,0.00,Wunderground v.1.15,2013-02-27 08:36:00,
2013-02-27 03:37:00,74.6,73.1,29.84,West,259,0.0,0.0,95,0.00,,,0.00,Wunderground v.1.15,2013-02-27 08:37:00,
2013-02-27 03:39:00,74.6,73.1,29.84,West,259,0.0,0.0,95,0.00,,,0.00,Wunderground v.1.15,2013-02-27 08:39:00,
2013-02-27 03:41:00,74.6,73.1,29.84,West,259,0.0,0.0,95,0.00,,,0.00,Wunderground v.1.15,2013-02-27 08:41:00,
2013-02-27 03:42:00,74.5,73.0,29.84,West,259,0.0,0.0,95,0.00,,,0.00,Wunderground v.1.15,2013-02-27 08:42:00,
2013-02-27 03:43:00,74.5,73.0,29.84,West,259,0.0,0.0,95,0.00,,,0.00,Wunderground v.1.15,2013-02-27 08:43:00,
2013-02-27 03:44:00,74.5,73.0,29.84,West,259,0.0,0.0,95,0.00,,,0.00,Wunderground v.1.15,2013-02-27 08:44:00,
2013-02-27 03:46:00,74.4,72.9,29.84,West,259,0.0,0.0,95,0.00,,,0.00,Wunderground v.1.15,2013-02-27 08:46:00,
2013-02-27 03:47:00,74.3,72.8,29.84,West,259,0.0,0.0,95,0.00,,,0.00,Wunderground v.1.15,2013-02-27 08:47:00,
2013-02-27 03:48:00,74.3,72.8,29.84,West,259,0.0,0.0,95,0.00,,,0.00,Wunderground v.1.15,2013-02-27 08:48:00,
2013-02-27 03:51:00,74.2,72.7,29.84,West,259,0.0,0.0,95,0.00,,,0.00,Wunderground v.1.15,2013-02-27 08:51:00,
2013-02-27 03:52:00,74.2,72.7,29.84,West,259,0.0,0.0,95,0.00,,,0.00,Wunderground v.1.15,2013-02-27 08:52:00,
2013-02-27 03:53:00,74.1,72.6,29.84,West,259,0.0,0.0,95,0.00,,,0.00,Wunderground v.1.15,2013-02-27 08:53:00,
2013-02-27 03:57:00,74.1,72.6,29.83,West,259,0.0,0.0,95,0.00,,,0.00,Wunderground v.1.15,2013-02-27 08:57:00,
2013-02-27 03:58:00,74.0,72.5,29.83,West,259,0.0,0.0,95,0.00,,,0.00,Wunderground v.1.15,2013-02-27 08:58:00,
2013-02-27 04:00:00,74.0,72.5,29.83,West,259,0.0,0.0,95,0.00,,,0.00,Wunderground v.1.15,2013-02-27 09:00:00,
2013-02-27 04:02:00,73.9,72.4,29.83,West,259,0.0,0.0,95,0.00,,,0.00,Wunderground v.1.15,2013-02-27 09:02:00,
2013-02-27 04:03:00,73.9,72.4,29.83,West,259,0.0,0.0,95,0.00,,,0.00,Wunderground v.1.15,2013-02-27 09:03:00,
2013-02-27 04:05:00,73.9,72.4,29.84,West,259,0.0,0.0,95,0.00,,,0.00,Wunderground v.1.15,2013-02-27 09:05:00,
2013-02-27 04:08:00,73.9,72.4,29.84,West,259,0.0,0.0,95,0.00,,,0.00,Wunderground v.1.15,2013-02-27 09:08:00,
2013-02-27 04:10:00,73.9,72.4,29.84,West,259,0.0,0.0,95,0.00,,,0.00,Wunderground v.1.15,2013-02-27 09:10:00,
2013-02-27 04:13:00,73.9,72.4,29.84,West,259,0.0,0.0,95,0.00,,,0.00,Wunderground v.1.15,2013-02-27 09:13:00,
2013-02-27 04:15:00,73.9,72.4,29.84,West,259,0.0,0.0,95,0.00,,,0.00,Wunderground v.1.15,2013-02-27 09:15:00,
2013-02-27 04:16:00,73.9,72.4,29.84,West,262,0.0,0.0,95,0.00,,,0.00,Wunderground v.1.15,2013-02-27 09:16:00,
2013-02-27 04:18:00,73.8,72.3,29.84,West,261,0.0,0.0,95,0.00,,,0.00,Wunderground v.1.15,2013-02-27 09:18:00,
2013-02-27 04:19:00,73.8,72.3,29.84,WSW,255,0.0,0.0,95,0.00,,,0.00,Wunderground v.1.15,2013-02-27 09:19:00,
2013-02-27 04:20:00,73.8,72.3,29.84,WSW,256,0.0,0.0,95,0.00,,,0.00,Wunderground v.1.15,2013-02-27 09:20:00,
2013-02-27 04:21:00,73.7,72.2,29.84,WSW,256,0.0,0.0,95,0.00,,,0.00,Wunderground v.1.15,2013-02-27 09:21:00,
2013-02-27 04:23:00,73.7,72.2,29.84,WSW,256,0.0,0.0,95,0.00,,,0.00,Wunderground v.1.15,2013-02-27 09:23:00,
2013-02-27 04:26:00,73.7,72.2,29.84,WSW,256,0.0,0.0,95,0.00,,,0.00,Wunderground v.1.15,2013-02-27 09:26:00,
2013-02-27 04:29:00,73.6,72.1,29.84,WSW,257,0.0,0.0,95,0.00,,,0.00,Wunderground v.1.15,2013-02-27 09:29:00,
2013-02-27 04:31:00,73.6,72.1,29.84,WSW,257,0.0,0.0,95,0.00,,,0.00,Wunderground v.1.15,2013-02-27 09:31:00,
2013-02-27 04:35:00,73.6,72.1,29.84,WSW,257,0.0,0.0,95,0.00,,,0.00,Wunderground v.1.15,2013-02-27 09:35:00,
2013-02-27 04:37:00,73.5,72.0,29.83,WSW,257,0.0,0.0,95,0.00,,,0.00,Wunderground v.1.15,2013-02-27 09:37:00,
2013-02-27 04:40:00,73.5,72.0,29.84,WSW,257,0.0,0.0,95,0.00,,,0.00,Wunderground v.1.15,2013-02-27 09:40:00,
2013-02-27 04:42:00,73.4,71.9,29.84,WSW,258,0.0,0.0,95,0.00,,,0.00,Wunderground v.1.15,2013-02-27 09:42:00,
2013-02-27 04:46:00,73.3,71.8,29.84,West,260,0.0,0.0,95,0.00,,,0.00,Wunderground v.1.15,2013-02-27 09:46:00,
2013-02-27 04:47:00,73.3,71.8,29.84,West,260,0.0,0.0,95,0.00,,,0.00,Wunderground v.1.15,2013-02-27 09:47:00,
2013-02-27 04:48:00,73.3,71.8,29.84,West,260,0.0,0.0,95,0.00,,,0.00,Wunderground v.1.15,2013-02-27 09:48:00,
2013-02-27 04:51:00,73.2,71.7,29.84,West,260,0.0,0.0,95,0.00,,,0.00,Wunderground v.1.15,2013-02-27 09:51:00,
2013-02-27 04:52:00,73.2,71.7,29.84,West,260,0.0,0.0,95,0.00,,,0.00,Wunderground v.1.15,2013-02-27 09:52:00,
2013-02-27 04:53:00,73.2,71.7,29.84,West,260,0.0,0.0,95,0.00,,,0.00,Wunderground v.1.15,2013-02-27 09:53:00,
2013-02-27 04:54:00,73.2,71.7,29.84,West,260,0.0,0.0,95,0.00,,,0.00,Wunderground v.1.15,2013-02-27 09:54:00,
2013-02-27 04:57:00,73.0,71.5,29.84,West,260,0.0,0.0,95,0.00,,,0.00,Wunderground v.1.15,2013-02-27 09:57:00,
2013-02-27 04:58:00,73.0,71.5,29.84,West,260,0.0,0.0,95,0.00,,,0.00,Wunderground v.1.15,2013-02-27 09:58:00,
2013-02-27 04:59:00,73.0,71.5,29.84,West,260,0.0,0.0,95,0.00,,,0.00,Wunderground v.1.15,2013-02-27 09:59:00,
2013-02-27 05:02:00,72.9,71.4,29.84,West,260,0.0,0.0,95,0.00,,,0.00,Wunderground v.1.15,2013-02-27 10:02:00,
2013-02-27 05:03:00,72.9,71.4,29.84,West,260,0.0,0.0,95,0.00,,,0.00,Wunderground v.1.15,2013-02-27 10:03:00,
2013-02-27 05:05:00,72.9,71.4,29.84,West,260,0.0,0.0,95,0.00,,,0.00,Wunderground v.1.15,2013-02-27 10:05:00,
2013-02-27 05:07:00,72.9,71.4,29.85,West,260,0.0,0.0,95,0.00,,,0.00,Wunderground v.1.15,2013-02-27 10:07:00,
2013-02-27 05:08:00,72.9,71.4,29.85,West,260,0.0,0.0,95,0.00,,,0.00,Wunderground v.1.15,2013-02-27 10:08:00,
2013-02-27 05:09:00,72.8,71.3,29.85,West,260,0.0,0.0,95,0.00,,,0.00,Wunderground v.1.15,2013-02-27 10:09:00,
2013-02-27 05:10:00,72.8,71.3,29.85,West,260,0.0,0.0,95,0.00,,,0.00,Wunderground v.1.15,2013-02-27 10:10:00,
2013-02-27 05:13:00,72.8,71.3,29.85,West,260,0.0,0.0,95,0.00,,,0.00,Wunderground v.1.15,2013-02-27 10:13:00,
2013-02-27 05:14:00,72.8,71.3,29.85,West,260,0.0,0.0,95,0.00,,,0.00,Wunderground v.1.15,2013-02-27 10:14:00,
2013-02-27 05:15:00,72.8,71.0,29.85,West,260,0.0,0.0,94,0.00,,,0.00,Wunderground v.1.15,2013-02-27 10:15:00,
2013-02-27 05:18:00,72.7,70.9,29.85,West,260,0.0,0.0,94,0.00,,,0.00,Wunderground v.1.15,2013-02-27 10:18:00,
2013-02-27 05:19:00,72.7,70.9,29.85,West,260,0.0,0.0,94,0.00,,,0.00,Wunderground v.1.15,2013-02-27 10:19:00,
2013-02-27 05:20:00,72.7,70.9,29.85,West,260,0.0,0.0,94,0.00,,,0.00,Wunderground v.1.15,2013-02-27 10:20:00,
2013-02-27 05:24:00,72.6,70.8,29.85,West,263,0.0,0.0,94,0.00,,,0.00,Wunderground v.1.15,2013-02-27 10:24:00,
2013-02-27 05:25:00,72.6,70.8,29.85,West,264,0.0,0.0,94,0.00,,,0.00,Wunderground v.1.15,2013-02-27 10:25:00,
2013-02-27 05:26:00,72.6,70.8,29.85,West,264,0.0,0.0,94,0.00,,,0.00,Wunderground v.1.15,2013-02-27 10:26:00,
2013-02-27 05:29:00,72.6,70.8,29.86,West,267,0.0,0.0,94,0.00,,,0.00,Wunderground v.1.15,2013-02-27 10:29:00,
2013-02-27 05:30:00,72.6,70.8,29.86,West,267,0.0,0.0,94,0.00,,,0.00,Wunderground v.1.15,2013-02-27 10:30:00,
2013-02-27 05:31:00,72.6,70.8,29.86,West,267,0.0,0.0,94,0.00,,,0.00,Wunderground v.1.15,2013-02-27 10:31:00,
2013-02-27 05:34:00,72.6,70.8,29.87,NW,324,0.0,0.0,94,0.00,,,0.00,Wunderground v.1.15,2013-02-27 10:34:00,
2013-02-27 05:36:00,72.3,70.5,29.87,NNW,330,0.0,7.0,94,0.00,,,0.00,Wunderground v.1.15,2013-02-27 10:36:00,
2013-02-27 05:38:00,71.7,69.6,29.87,NNW,346,2.0,7.0,93,0.00,,,0.00,Wunderground v.1.15,2013-02-27 10:38:00,
2013-02-27 05:39:00,71.4,69.3,29.87,NNW,342,2.0,7.0,93,0.00,,,0.00,Wunderground v.1.15,2013-02-27 10:39:00,
2013-02-27 05:41:00,71.0,68.6,29.86,NW,326,0.0,6.0,92,0.00,,,0.00,Wunderground v.1.15,2013-02-27 10:41:00,
2013-02-27 05:43:00,70.7,68.3,29.87,NNW,338,4.0,6.0,92,0.00,,,0.00,Wunderground v.1.15,2013-02-27 10:43:00,
2013-02-27 05:44:00,70.6,68.2,29.87,NW,317,0.0,6.0,92,0.00,,,0.00,Wunderground v.1.15,2013-02-27 10:44:00,
2013-02-27 05:45:00,70.5,68.1,29.87,NW,309,1.0,6.0,92,0.00,,,0.00,Wunderground v.1.15,2013-02-27 10:45:00,
2013-02-27 05:46:00,70.5,68.1,29.87,NW,325,0.0,6.0,92,0.00,,,0.00,Wunderground v.1.15,2013-02-27 10:46:00,
2013-02-27 05:49:00,70.5,67.7,29.87,NW,324,0.0,6.0,91,0.00,,,0.00,Wunderground v.1.15,2013-02-27 10:49:00,
2013-02-27 05:50:00,70.5,67.7,29.87,NW,324,0.0,1.0,91,0.00,,,0.00,Wunderground v.1.15,2013-02-27 10:50:00,
2013-02-27 05:52:00,70.5,67.7,29.88,NNW,333,0.0,5.0,91,0.00,,,0.00,Wunderground v.1.15,2013-02-27 10:52:00,
2013-02-27 05:55:00,70.4,67.3,29.88,NW,324,0.0,8.0,90,0.00,,,0.00,Wunderground v.1.15,2013-02-27 10:55:00,
2013-02-27 05:58:00,70.3,67.2,29.88,North,355,1.0,9.0,90,0.00,,,0.00,Wunderground v.1.15,2013-02-27 10:58:00,
2013-02-27 06:00:00,70.2,67.1,29.88,NNW,329,0.0,1.0,90,0.00,,,0.01,Wunderground v.1.15,2013-02-27 11:00:00,
2013-02-27 06:01:00,70.2,67.1,29.87,NNW,328,0.0,1.0,90,0.00,,,0.01,Wunderground v.1.15,2013-02-27 11:01:00,
2013-02-27 06:03:00,70.1,67.0,29.87,NNW,330,0.0,1.0,90,0.00,,,0.01,Wunderground v.1.15,2013-02-27 11:03:00,
2013-02-27 06:05:00,70.0,67.3,29.87,NNW,330,0.0,1.0,91,0.00,,,0.01,Wunderground v.1.15,2013-02-27 11:05:00,
2013-02-27 06:06:00,70.0,67.3,29.87,NNW,330,0.0,1.0,91,0.00,,,0.01,Wunderground v.1.15,2013-02-27 11:06:00,
2013-02-27 06:09:00,69.9,67.2,29.87,NNW,330,0.0,1.0,91,0.00,,,0.01,Wunderground v.1.15,2013-02-27 11:09:00,
2013-02-27 06:10:00,69.9,67.5,29.87,NNW,330,0.0,0.0,92,0.00,,,0.01,Wunderground v.1.15,2013-02-27 11:10:00,
2013-02-27 06:11:00,69.8,67.4,29.87,NNW,328,0.0,0.0,92,0.00,,,0.01,Wunderground v.1.15,2013-02-27 11:11:00,
2013-02-27 06:13:00,69.7,67.3,29.88,NNW,327,0.0,0.0,92,0.00,,,0.01,Wunderground v.1.15,2013-02-27 11:13:00,
2013-02-27 06:14:00,69.7,67.3,29.88,NNW,329,0.0,0.0,92,0.00,,,0.01,Wunderground v.1.15,2013-02-27 11:14:00,
2013-02-27 06:16:00,69.6,67.2,29.88,NNW,329,0.0,0.0,92,0.00,,,0.01,Wunderground v.1.15,2013-02-27 11:16:00,
2013-02-27 06:17:00,69.5,67.1,29.88,NNW,328,0.0,0.0,92,0.00,,,0.01,Wunderground v.1.15,2013-02-27 11:17:00,
2013-02-27 06:18:00,69.4,67.0,29.88,NNW,328,0.0,0.0,92,0.00,,,0.01,Wunderground v.1.15,2013-02-27 11:18:00,
2013-02-27 06:21:00,69.4,67.0,29.88,NNW,327,0.0,0.0,92,0.00,,,0.01,Wunderground v.1.15,2013-02-27 11:21:00,
2013-02-27 06:22:00,69.4,67.0,29.88,NW,325,0.0,0.0,92,0.00,,,0.01,Wunderground v.1.15,2013-02-27 11:22:00,
2013-02-27 06:24:00,69.3,66.9,29.88,NW,323,1.0,1.0,92,0.00,,,0.01,Wunderground v.1.15,2013-02-27 11:24:00,
2013-02-27 06:26:00,69.2,66.8,29.88,NW,323,0.0,4.0,92,0.00,,,0.01,Wunderground v.1.15,2013-02-27 11:26:00,
2013-02-27 06:27:00,69.2,66.8,29.88,NNW,329,0.0,4.0,92,0.00,,,0.01,Wunderground v.1.15,2013-02-27 11:27:00,
2013-02-27 06:29:00,69.2,66.8,29.88,NNW,327,2.0,6.0,92,0.00,,,0.01,Wunderground v.1.15,2013-02-27 11:29:00,
2013-02-27 06:32:00,69.1,66.7,29.89,NNW,337,0.0,4.0,92,0.00,,,0.01,Wunderground v.1.15,2013-02-27 11:32:00,
2013-02-27 06:34:00,69.1,66.7,29.89,NNW,336,0.0,4.0,92,0.00,,,0.01,Wunderground v.1.15,2013-02-27 11:34:00,
2013-02-27 06:37:00,69.0,66.6,29.89,NW,323,2.0,6.0,92,0.00,,,0.01,Wunderground v.1.15,2013-02-27 11:37:00,
2013-02-27 06:38:00,69.0,66.6,29.89,NW,324,7.0,7.0,92,0.00,,,0.01,Wunderground v.1.15,2013-02-27 11:38:00,
2013-02-27 06:39:00,69.0,66.6,29.89,WNW,302,0.0,7.0,92,0.00,,,0.01,Wunderground v.1.15,2013-02-27 11:39:00,
2013-02-27 06:43:00,69.0,66.6,29.89,North,355,0.0,4.0,92,0.00,,,0.01,Wunderground v.1.15,2013-02-27 11:43:00,
2013-02-27 06:44:00,68.9,66.5,29.89,NW,321,4.0,4.0,92,0.00,,,0.01,Wunderground v.1.15,2013-02-27 11:44:00,
2013-02-27 06:48:00,68.8,66.7,29.89,NNW,340,0.0,4.0,93,0.00,,,0.01,Wunderground v.1.15,2013-02-27 11:48:00,
2013-02-27 06:49:00,68.8,66.7,29.89,NNW,340,0.0,4.0,93,0.00,,,0.01,Wunderground v.1.15,2013-02-27 11:49:00,
2013-02-27 06:50:00,68.8,66.7,29.89,NNW,340,0.0,1.0,93,0.00,,,0.01,Wunderground v.1.15,2013-02-27 11:50:00,
2013-02-27 06:53:00,68.8,66.7,29.89,NNW,340,0.0,1.0,93,0.00,,,0.01,Wunderground v.1.15,2013-02-27 11:53:00,
2013-02-27 06:54:00,68.8,66.7,29.89,NNW,340,0.0,1.0,93,0.00,,,0.01,Wunderground v.1.15,2013-02-27 11:54:00,
2013-02-27 06:55:00,68.8,66.7,29.89,NNW,340,0.0,1.0,93,0.00,,,0.01,Wunderground v.1.15,2013-02-27 11:55:00,
2013-02-27 06:58:00,68.8,66.7,29.89,NNW,335,0.0,3.0,93,0.00,,,0.01,Wunderground v.1.15,2013-02-27 11:58:00,
2013-02-27 06:59:00,68.7,66.6,29.89,NNW,335,0.0,3.0,93,0.00,,,0.01,Wunderground v.1.15,2013-02-27 11:59:00,
2013-02-27 07:00:00,68.7,66.6,29.89,NNW,335,0.0,0.0,93,0.00,,,0.01,Wunderground v.1.15,2013-02-27 12:00:00,
2013-02-27 07:03:00,68.6,66.5,29.89,NNW,335,0.0,0.0,93,0.00,,,0.01,Wunderground v.1.15,2013-02-27 12:03:00,
2013-02-27 07:04:00,68.5,66.4,29.89,NNW,335,0.0,0.0,93,0.00,,,0.01,Wunderground v.1.15,2013-02-27 12:04:00,
2013-02-27 07:05:00,68.5,66.4,29.89,NNW,335,0.0,0.0,93,0.00,,,0.01,Wunderground v.1.15,2013-02-27 12:05:00,
2013-02-27 07:09:00,68.5,66.4,29.90,NNW,335,0.0,0.0,93,0.00,,,0.01,Wunderground v.1.15,2013-02-27 12:09:00,
2013-02-27 07:10:00,68.5,66.4,29.90,NNW,335,0.0,0.0,93,0.00,,,0.01,Wunderground v.1.15,2013-02-27 12:10:00,
2013-02-27 07:14:00,68.4,66.3,29.89,NNW,335,0.0,0.0,93,0.00,,,0.01,Wunderground v.1.15,2013-02-27 12:14:00,
2013-02-27 07:15:00,68.4,66.3,29.90,NNW,335,0.0,0.0,93,0.00,,,0.01,Wunderground v.1.15,2013-02-27 12:15:00,
2013-02-27 07:16:00,68.4,66.3,29.90,NNW,335,1.0,2.0,93,0.00,,,0.01,Wunderground v.1.15,2013-02-27 12:16:00,
2013-02-27 07:20:00,68.4,66.6,29.90,NNW,335,0.0,1.0,94,0.00,,,0.01,Wunderground v.1.15,2013-02-27 12:20:00,
2013-02-27 07:21:00,68.4,66.6,29.90,NNW,333,3.0,5.0,94,0.00,,,0.01,Wunderground v.1.15,2013-02-27 12:21:00,
2013-02-27 07:25:00,68.4,66.6,29.90,NNW,337,0.0,5.0,94,0.00,,,0.01,Wunderground v.1.15,2013-02-27 12:25:00,
2013-02-27 07:26:00,68.4,66.6,29.90,NNW,338,0.0,5.0,94,0.00,,,0.01,Wunderground v.1.15,2013-02-27 12:26:00,
2013-02-27 07:30:00,68.3,66.5,29.90,North,355,5.0,5.0,94,0.00,,,0.01,Wunderground v.1.15,2013-02-27 12:30:00,
2013-02-27 07:31:00,68.3,66.5,29.90,NNW,332,1.0,5.0,94,0.00,,,0.01,Wunderground v.1.15,2013-02-27 12:31:00,
2013-02-27 07:32:00,68.3,66.5,29.90,NNW,332,0.0,5.0,94,0.00,,,0.01,Wunderground v.1.15,2013-02-27 12:32:00,
2013-02-27 07:35:00,68.1,66.3,29.90,NNW,345,5.0,6.0,94,0.00,,,0.01,Wunderground v.1.15,2013-02-27 12:35:00,
2013-02-27 07:37:00,68.0,66.2,29.90,NNW,344,0.0,6.0,94,0.00,,,0.01,Wunderground v.1.15,2013-02-27 12:37:00,
2013-02-27 07:39:00,68.1,66.3,29.90,NNW,345,0.0,6.0,94,0.00,,,0.01,Wunderground v.1.15,2013-02-27 12:39:00,
2013-02-27 07:40:00,68.1,66.3,29.90,NNW,345,0.0,1.0,94,0.00,,,0.01,Wunderground v.1.15,2013-02-27 12:40:00,
2013-02-27 07:42:00,68.2,66.4,29.90,NNW,345,0.0,1.0,94,0.00,,,0.01,Wunderground v.1.15,2013-02-27 12:42:00,
2013-02-27 07:43:00,68.3,66.5,29.90,NNW,345,0.0,1.0,94,0.00,,,0.01,Wunderground v.1.15,2013-02-27 12:43:00,
2013-02-27 07:44:00,68.3,66.5,29.90,NNW,345,0.0,1.0,94,0.00,,,0.01,Wunderground v.1.15,2013-02-27 12:44:00,
2013-02-27 07:45:00,68.4,66.6,29.90,NNW,345,0.0,1.0,94,0.00,,,0.01,Wunderground v.1.15,2013-02-27 12:45:00,
2013-02-27 07:47:00,68.5,66.7,29.90,NNW,345,0.0,1.0,94,0.00,,,0.01,Wunderground v.1.15,2013-02-27 12:47:00,
2013-02-27 07:49:00,68.5,66.7,29.90,NNW,345,0.0,1.0,94,0.00,,,0.01,Wunderground v.1.15,2013-02-27 12:49:00,
2013-02-27 07:50:00,68.5,66.7,29.90,NNW,345,0.0,0.0,94,0.00,,,0.01,Wunderground v.1.15,2013-02-27 12:50:00,
2013-02-27 07:51:00,68.5,66.7,29.90,NNW,345,0.0,0.0,94,0.00,,,0.01,Wunderground v.1.15,2013-02-27 12:51:00,
2013-02-27 07:54:00,68.5,66.4,29.91,NNW,338,0.0,5.0,93,0.00,,,0.01,Wunderground v.1.15,2013-02-27 12:54:00,
2013-02-27 07:56:00,68.5,66.4,29.91,NNW,339,0.0,5.0,93,0.00,,,0.01,Wunderground v.1.15,2013-02-27 12:56:00,
2013-02-27 07:57:00,68.5,66.4,29.91,NNW,339,0.0,5.0,93,0.00,,,0.01,Wunderground v.1.15,2013-02-27 12:57:00,
2013-02-27 07:59:00,68.5,66.4,29.91,North,350,0.0,5.0,93,0.00,,,0.01,Wunderground v.1.15,2013-02-27 12:59:00,
2013-02-27 08:01:00,68.6,66.5,29.91,NNW,345,0.0,1.0,93,0.00,,,0.01,Wunderground v.1.15,2013-02-27 13:01:00,
2013-02-27 08:02:00,68.6,66.5,29.91,NNW,344,0.0,1.0,93,0.00,,,0.01,Wunderground v.1.15,2013-02-27 13:02:00,
2013-02-27 08:04:00,68.7,66.6,29.91,NNW,336,2.0,5.0,93,0.00,,,0.01,Wunderground v.1.15,2013-02-27 13:04:00,
2013-02-27 08:05:00,68.7,66.6,29.91,NW,319,1.0,6.0,93,0.00,,,0.01,Wunderground v.1.15,2013-02-27 13:05:00,
2013-02-27 08:07:00,68.8,66.7,29.91,NW,320,0.0,6.0,93,0.00,,,0.01,Wunderground v.1.15,2013-02-27 13:07:00,
2013-02-27 08:09:00,69.0,66.6,29.91,NNW,328,0.0,6.0,92,0.00,,,0.01,Wunderground v.1.15,2013-02-27 13:09:00,
2013-02-27 08:10:00,69.0,66.6,29.91,NNW,328,0.0,1.0,92,0.00,,,0.01,Wunderground v.1.15,2013-02-27 13:10:00,
2013-02-27 08:12:00,69.3,66.9,29.91,NNW,328,0.0,1.0,92,0.00,,,0.01,Wunderground v.1.15,2013-02-27 13:12:00,
2013-02-27 08:15:00,69.5,67.1,29.91,NNW,328,0.0,1.0,92,0.00,,,0.01,Wunderground v.1.15,2013-02-27 13:15:00,
2013-02-27 08:16:00,69.5,66.8,29.91,NNW,327,0.0,1.0,91,0.00,,,0.01,Wunderground v.1.15,2013-02-27 13:16:00,
2013-02-27 08:18:00,69.5,66.8,29.91,NW,309,0.0,2.0,91,0.00,,,0.01,Wunderground v.1.15,2013-02-27 13:18:00,
2013-02-27 08:20:00,69.6,66.9,29.91,NW,309,0.0,0.0,91,0.00,,,0.01,Wunderground v.1.15,2013-02-27 13:20:00,
2013-02-27 08:21:00,69.7,67.3,29.91,NW,310,0.0,0.0,92,0.00,,,0.01,Wunderground v.1.15,2013-02-27 13:21:00,
2013-02-27 08:23:00,69.8,67.1,29.91,NNW,344,0.0,4.0,91,0.00,,,0.01,Wunderground v.1.15,2013-02-27 13:23:00,
2013-02-27 08:25:00,70.0,67.3,29.91,NNW,341,0.0,4.0,91,0.00,,,0.01,Wunderground v.1.15,2013-02-27 13:25:00,
2013-02-27 08:27:00,70.1,67.3,29.91,NNW,338,2.0,4.0,91,0.00,,,0.01,Wunderground v.1.15,2013-02-27 13:27:00,
2013-02-27 08:28:00,70.2,67.4,29.91,NNW,338,0.0,4.0,91,0.00,,,0.01,Wunderground v.1.15,2013-02-27 13:28:00,
2013-02-27 08:30:00,70.3,67.2,29.91,NNW,338,0.0,0.0,90,0.00,,,0.01,Wunderground v.1.15,2013-02-27 13:30:00,
2013-02-27 08:33:00,70.4,67.3,29.91,NNW,342,0.0,4.0,90,0.00,,,0.01,Wunderground v.1.15,2013-02-27 13:33:00,
2013-02-27 08:35:00,70.7,67.9,29.92,NNW,337,0.0,5.0,91,0.00,,,0.01,Wunderground v.1.15,2013-02-27 13:35:00,
2013-02-27 08:38:00,71.2,68.1,29.92,NNW,336,0.0,5.0,90,0.00,,,0.01,Wunderground v.1.15,2013-02-27 13:38:00,
2013-02-27 08:39:00,71.2,68.1,29.92,NNW,336,0.0,5.0,90,0.00,,,0.01,Wunderground v.1.15,2013-02-27 13:39:00,
2013-02-27 08:41:00,71.5,68.1,29.92,NNW,333,0.0,0.0,89,0.00,,,0.01,Wunderground v.1.15,2013-02-27 13:41:00,
2013-02-27 08:44:00,72.0,68.6,29.92,North,360,0.0,5.0,89,0.00,,,0.01,Wunderground v.1.15,2013-02-27 13:44:00,
2013-02-27 08:45:00,72.1,68.3,29.92,North,360,0.0,5.0,88,0.00,,,0.01,Wunderground v.1.15,2013-02-27 13:45:00,
2013-02-27 08:46:00,72.4,68.6,29.92,NNW,348,0.0,5.0,88,0.00,,,0.01,Wunderground v.1.15,2013-02-27 13:46:00,
2013-02-27 08:49:00,73.0,69.2,29.92,NNW,331,0.0,5.0,88,0.00,,,0.01,Wunderground v.1.15,2013-02-27 13:49:00,
2013-02-27 08:51:00,73.1,69.0,29.92,North,355,4.0,6.0,87,0.00,,,0.01,Wunderground v.1.15,2013-02-27 13:51:00,
2013-02-27 08:54:00,73.3,68.9,29.92,NNW,343,2.0,6.0,86,0.00,,,0.01,Wunderground v.1.15,2013-02-27 13:54:00,
2013-02-27 08:55:00,73.5,69.1,29.92,NNW,333,6.0,6.0,86,0.00,,,0.01,Wunderground v.1.15,2013-02-27 13:55:00,
2013-02-27 08:56:00,73.7,69.2,29.92,NW,323,4.0,9.0,86,0.00,,,0.01,Wunderground v.1.15,2013-02-27 13:56:00,
2013-02-27 08:57:00,73.8,68.7,29.92,NNW,339,0.0,9.0,84,0.00,,,0.01,Wunderground v.1.15,2013-02-27 13:57:00,
2013-02-27 09:00:00,73.9,68.8,29.92,NNW,343,0.0,2.0,84,0.00,,,0.01,Wunderground v.1.15,2013-02-27 14:00:00,
2013-02-27 09:01:00,73.9,68.8,29.92,NNW,343,0.0,2.0,84,0.00,,,0.01,Wunderground v.1.15,2013-02-27 14:01:00,
2013-02-27 09:02:00,74.0,69.2,29.92,NNW,333,7.0,7.0,85,0.00,,,0.01,Wunderground v.1.15,2013-02-27 14:02:00,
2013-02-27 09:06:00,73.9,68.1,29.92,North,351,0.0,8.0,82,0.00,,,0.01,Wunderground v.1.15,2013-02-27 14:06:00,
2013-02-27 09:08:00,73.4,67.6,29.92,NW,326,0.0,8.0,82,0.00,,,0.01,Wunderground v.1.15,2013-02-27 14:08:00,
2013-02-27 09:11:00,73.5,68.7,29.92,NNW,333,0.0,2.0,85,0.00,,,0.01,Wunderground v.1.15,2013-02-27 14:11:00,
2013-02-27 09:12:00,73.7,68.9,29.92,NNW,332,3.0,3.0,85,0.00,,,0.01,Wunderground v.1.15,2013-02-27 14:12:00,
2013-02-27 09:14:00,74.0,68.9,29.92,NNW,341,0.0,4.0,84,0.00,,,0.01,Wunderground v.1.15,2013-02-27 14:14:00,
2013-02-27 09:16:00,74.2,68.7,29.92,NW,321,2.0,6.0,83,0.00,,,0.01,Wunderground v.1.15,2013-02-27 14:16:00,
2013-02-27 09:17:00,74.2,68.7,29.92,NW,313,4.0,7.0,83,0.00,,,0.01,Wunderground v.1.15,2013-02-27 14:17:00,
2013-02-27 09:19:00,74.3,68.8,29.92,NW,319,1.0,7.0,83,0.00,,,0.01,Wunderground v.1.15,2013-02-27 14:19:00,
2013-02-27 09:21:00,74.3,68.4,29.92,NW,318,0.0,6.0,82,0.00,,,0.01,Wunderground v.1.15,2013-02-27 14:21:00,
2013-02-27 09:22:00,74.3,68.1,29.92,NW,325,4.0,6.0,81,0.00,,,0.01,Wunderground v.1.15,2013-02-27 14:22:00,
2013-02-27 09:23:00,74.3,68.4,29.92,NW,318,0.0,6.0,82,0.00,,,0.01,Wunderground v.1.15,2013-02-27 14:23:00,
2013-02-27 09:25:00,74.4,68.2,29.92,NNW,342,5.0,6.0,81,0.00,,,0.01,Wunderground v.1.15,2013-02-27 14:25:00,
2013-02-27 09:26:00,74.5,68.3,29.92,NNW,334,5.0,6.0,81,0.00,,,0.01,Wunderground v.1.15,2013-02-27 14:26:00,
2013-02-27 09:27:00,74.7,68.8,29.92,NNW,328,0.0,6.0,82,0.00,,,0.01,Wunderground v.1.15,2013-02-27 14:27:00,
2013-02-27 09:29:00,74.9,68.7,29.92,NW,319,4.0,6.0,81,0.00,,,0.01,Wunderground v.1.15,2013-02-27 14:29:00,
2013-02-27 09:31:00,75.1,68.5,29.92,NNW,329,0.0,5.0,80,0.00,,,0.01,Wunderground v.1.15,2013-02-27 14:31:00,
2013-02-27 09:32:00,75.1,68.5,29.92,NNW,331,0.0,5.0,80,0.00,,,0.01,Wunderground v.1.15,2013-02-27 14:32:00,
2013-02-27 09:33:00,75.2,69.0,29.92,NNW,330,0.0,5.0,81,0.00,,,0.01,Wunderground v.1.15,2013-02-27 14:33:00,
2013-02-27 09:34:00,75.5,69.6,29.92,NNW,327,1.0,5.0,82,0.00,,,0.01,Wunderground v.1.15,2013-02-27 14:34:00,
2013-02-27 09:36:00,75.6,69.4,29.92,North,350,1.0,5.0,81,0.00,,,0.01,Wunderground v.1.15,2013-02-27 14:36:00,
2013-02-27 09:37:00,75.7,69.1,29.92,North,350,0.0,5.0,80,0.00,,,0.01,Wunderground v.1.15,2013-02-27 14:37:00,
2013-02-27 09:38:00,75.8,69.6,29.92,North,5,4.0,5.0,81,0.00,,,0.01,Wunderground v.1.15,2013-02-27 14:38:00,
2013-02-27 09:39:00,75.9,69.3,29.92,North,355,0.0,5.0,80,0.00,,,0.01,Wunderground v.1.15,2013-02-27 14:39:00,
2013-02-27 09:41:00,75.9,68.5,29.92,NW,321,3.0,8.0,78,0.00,,,0.01,Wunderground v.1.15,2013-02-27 14:41:00,
2013-02-27 09:43:00,75.5,68.2,29.92,NW,321,0.0,8.0,78,0.00,,,0.01,Wunderground v.1.15,2013-02-27 14:43:00,
2013-02-27 09:45:00,75.2,68.2,29.92,WNW,296,1.0,8.0,79,0.00,,,0.01,Wunderground v.1.15,2013-02-27 14:45:00,
2013-02-27 09:47:00,74.9,67.9,29.92,NW,323,0.0,8.0,79,0.00,,,0.01,Wunderground v.1.15,2013-02-27 14:47:00,
2013-02-27 09:48:00,75.0,68.0,29.92,NW,313,2.0,8.0,79,0.00,,,0.01,Wunderground v.1.15,2013-02-27 14:48:00,
2013-02-27 09:49:00,75.0,68.0,29.92,NW,306,6.0,8.0,79,0.00,,,0.01,Wunderground v.1.15,2013-02-27 14:49:00,
2013-02-27 09:50:00,75.1,68.1,29.92,NW,315,0.0,2.0,79,0.00,,,0.01,Wunderground v.1.15,2013-02-27 14:50:00,
2013-02-27 09:52:00,75.3,68.3,29.92,NNW,331,4.0,4.0,79,0.00,,,0.01,Wunderground v.1.15,2013-02-27 14:52:00,
2013-02-27 09:54:00,75.4,68.8,29.92,NNW,327,0.0,4.0,80,0.00,,,0.01,Wunderground v.1.15,2013-02-27 14:54:00,
2013-02-27 09:55:00,75.6,68.3,29.92,NNW,346,6.0,6.0,78,0.00,,,0.01,Wunderground v.1.15,2013-02-27 14:55:00,
2013-02-27 09:57:00,75.6,67.9,29.92,NW,323,0.0,6.0,77,0.00,,,0.01,Wunderground v.1.15,2013-02-27 14:57:00,
2013-02-27 09:59:00,75.6,68.3,29.92,NW,323,0.0,6.0,78,0.00,,,0.01,Wunderground v.1.15,2013-02-27 14:59:00,
2013-02-27 10:01:00,75.8,69.2,29.92,NW,321,0.0,2.0,80,0.00,,,0.01,Wunderground v.1.15,2013-02-27 15:01:00,
2013-02-27 10:03:00,76.0,68.6,29.92,NW,323,0.0,4.0,78,0.00,,,0.01,Wunderground v.1.15,2013-02-27 15:03:00,
2013-02-27 10:04:00,76.0,68.3,29.92,NNW,327,0.0,4.0,77,0.00,,,0.01,Wunderground v.1.15,2013-02-27 15:04:00,
2013-02-27 10:05:00,76.1,68.7,29.92,NW,315,0.0,5.0,78,0.00,,,0.01,Wunderground v.1.15,2013-02-27 15:05:00,
2013-02-27 10:06:00,76.0,68.3,29.92,NW,309,0.0,5.0,77,0.00,,,0.01,Wunderground v.1.15,2013-02-27 15:06:00,
2013-02-27 10:08:00,75.9,68.5,29.92,NNW,333,1.0,5.0,78,0.00,,,0.01,Wunderground v.1.15,2013-02-27 15:08:00,
2013-02-27 10:10:00,75.8,68.4,29.92,NNW,348,4.0,6.0,78,0.00,,,0.01,Wunderground v.1.15,2013-02-27 15:10:00,
2013-02-27 10:11:00,75.7,68.0,29.92,NW,323,0.0,6.0,77,0.00,,,0.01,Wunderground v.1.15,2013-02-27 15:11:00,
2013-02-27 10:13:00,75.2,67.5,29.92,NNW,346,0.0,6.0,77,0.00,,,0.01,Wunderground v.1.15,2013-02-27 15:13:00,
2013-02-27 10:15:00,74.9,67.6,29.93,NNW,343,1.0,6.0,78,0.00,,,0.01,Wunderground v.1.15,2013-02-27 15:15:00,
2013-02-27 10:16:00,74.8,67.5,29.93,North,349,0.0,6.0,78,0.00,,,0.01,Wunderground v.1.15,2013-02-27 15:16:00,
2013-02-27 10:17:00,74.7,67.4,29.93,NNW,340,4.0,6.0,78,0.00,,,0.01,Wunderground v.1.15,2013-02-27 15:17:00,
2013-02-27 10:18:00,74.6,67.7,29.92,NNW,335,0.0,6.0,79,0.00,,,0.01,Wunderground v.1.15,2013-02-27 15:18:00,
2013-02-27 10:21:00,74.5,67.6,29.92,North,350,1.0,4.0,79,0.00,,,0.01,Wunderground v.1.15,2013-02-27 15:21:00,
2013-02-27 10:22:00,74.5,67.6,29.93,NNW,334,3.0,4.0,79,0.00,,,0.01,Wunderground v.1.15,2013-02-27 15:22:00,
2013-02-27 10:24:00,74.6,68.0,29.92,NNW,333,0.0,4.0,80,0.00,,,0.01,Wunderground v.1.15,2013-02-27 15:24:00,
2013-02-27 10:25:00,74.7,68.5,29.93,NNW,329,1.0,4.0,81,0.00,,,0.01,Wunderground v.1.15,2013-02-27 15:25:00,
2013-02-27 10:26:00,74.8,67.8,29.93,North,350,4.0,7.0,79,0.00,,,0.01,Wunderground v.1.15,2013-02-27 15:26:00,
2013-02-27 10:27:00,74.7,67.4,29.93,North,360,0.0,7.0,78,0.00,,,0.01,Wunderground v.1.15,2013-02-27 15:27:00,
2013-02-27 10:29:00,74.5,67.2,29.93,North,355,2.0,7.0,78,0.00,,,0.01,Wunderground v.1.15,2013-02-27 15:29:00,
2013-02-27 10:30:00,74.3,67.0,29.93,North,360,2.0,3.0,78,0.00,,,0.01,Wunderground v.1.15,2013-02-27 15:30:00,
2013-02-27 10:32:00,74.2,67.3,29.93,NNW,347,3.0,3.0,79,0.00,,,0.01,Wunderground v.1.15,2013-02-27 15:32:00,
2013-02-27 10:33:00,74.3,67.4,29.93,NNW,338,5.0,5.0,79,0.00,,,0.01,Wunderground v.1.15,2013-02-27 15:33:00,
2013-02-27 10:35:00,74.5,67.6,29.93,North,350,2.0,5.0,79,0.00,,,0.01,Wunderground v.1.15,2013-02-27 15:35:00,
2013-02-27 10:36:00,74.5,67.6,29.93,NW,322,0.0,6.0,79,0.00,,,0.01,Wunderground v.1.15,2013-02-27 15:36:00,
2013-02-27 10:37:00,74.6,67.7,29.93,NW,322,0.0,6.0,79,0.00,,,0.01,Wunderground v.1.15,2013-02-27 15:37:00,
2013-02-27 10:38:00,74.7,67.8,29.93,NW,321,5.0,6.0,79,0.00,,,0.01,Wunderground v.1.15,2013-02-27 15:38:00,
2013-02-27 10:40:00,74.9,67.9,29.92,NNW,332,4.0,4.0,79,0.00,,,0.01,Wunderground v.1.15,2013-02-27 15:40:00,
2013-02-27 10:41:00,75.0,67.7,29.92,NNW,339,0.0,4.0,78,0.00,,,0.01,Wunderground v.1.15,2013-02-27 15:41:00,
2013-02-27 10:42:00,75.1,67.8,29.93,NNW,337,0.0,4.0,78,0.00,,,0.01,Wunderground v.1.15,2013-02-27 15:42:00,
2013-02-27 10:44:00,75.3,68.0,29.92,NNW,348,2.0,4.0,78,0.00,,,0.01,Wunderground v.1.15,2013-02-27 15:44:00,
2013-02-27 10:45:00,75.3,68.0,29.92,NNW,348,0.0,4.0,78,0.00,,,0.01,Wunderground v.1.15,2013-02-27 15:45:00,
2013-02-27 10:46:00,75.4,68.1,29.92,NNW,344,3.0,4.0,78,0.00,,,0.01,Wunderground v.1.15,2013-02-27 15:46:00,
2013-02-27 10:48:00,75.6,68.3,29.92,NNW,343,0.0,4.0,78,0.00,,,0.01,Wunderground v.1.15,2013-02-27 15:48:00,
2013-02-27 10:49:00,75.7,68.7,29.92,NNW,343,0.0,4.0,79,0.00,,,0.01,Wunderground v.1.15,2013-02-27 15:49:00,
2013-02-27 10:50:00,75.8,68.4,29.92,NNW,343,0.0,1.0,78,0.00,,,0.01,Wunderground v.1.15,2013-02-27 15:50:00,
2013-02-27 10:52:00,75.9,68.5,29.92,NNW,343,0.0,1.0,78,0.00,,,0.01,Wunderground v.1.15,2013-02-27 15:52:00,
2013-02-27 10:53:00,76.1,68.7,29.92,NNW,343,0.0,2.0,78,0.00,,,0.01,Wunderground v.1.15,2013-02-27 15:53:00,
2013-02-27 10:54:00,76.0,68.3,29.92,NNW,343,0.0,2.0,77,0.00,,,0.01,Wunderground v.1.15,2013-02-27 15:54:00,
2013-02-27 10:55:00,75.9,68.2,29.92,NNW,343,0.0,2.0,77,0.00,,,0.01,Wunderground v.1.15,2013-02-27 15:55:00,
2013-02-27 10:57:00,75.8,68.4,29.92,NNW,343,0.0,2.0,78,0.00,,,0.01,Wunderground v.1.15,2013-02-27 15:57:00,
2013-02-27 10:58:00,75.4,67.3,29.93,NNW,343,0.0,2.0,76,0.00,,,0.01,Wunderground v.1.15,2013-02-27 15:58:00,
2013-02-27 10:59:00,75.2,67.1,29.93,NNW,343,0.0,2.0,76,0.00,,,0.01,Wunderground v.1.15,2013-02-27 15:59:00,
2013-02-27 11:01:00,74.9,67.2,29.93,NNW,343,0.0,0.0,77,0.00,,,0.01,Wunderground v.1.15,2013-02-27 16:01:00,
2013-02-27 11:02:00,74.9,67.6,29.93,NNW,343,0.0,0.0,78,0.00,,,0.01,Wunderground v.1.15,2013-02-27 16:02:00,
2013-02-27 11:03:00,74.9,67.9,29.93,NNW,343,1.0,1.0,79,0.00,,,0.01,Wunderground v.1.15,2013-02-27 16:03:00,
2013-02-27 11:04:00,74.9,67.6,29.93,NNW,342,1.0,2.0,78,0.00,,,0.01,Wunderground v.1.15,2013-02-27 16:04:00,
2013-02-27 11:06:00,75.0,67.7,29.93,NNW,342,3.0,3.0,78,0.00,,,0.01,Wunderground v.1.15,2013-02-27 16:06:00,
2013-02-27 11:08:00,74.9,67.6,29.94,NNW,339,0.0,3.0,78,0.00,,,0.01,Wunderground v.1.15,2013-02-27 16:08:00,
2013-02-27 11:10:00,74.9,67.6,29.94,NNW,346,1.0,6.0,78,0.00,,,0.01,Wunderground v.1.15,2013-02-27 16:10:00,
2013-02-27 11:12:00,74.8,67.1,29.93,NNW,335,0.0,6.0,77,0.00,,,0.01,Wunderground v.1.15,2013-02-27 16:12:00,
2013-02-27 11:15:00,74.7,67.4,29.93,NNW,336,0.0,6.0,78,0.00,,,0.01,Wunderground v.1.15,2013-02-27 16:15:00,
2013-02-27 11:18:00,74.7,67.0,29.93,NNW,338,0.0,6.0,77,0.00,,,0.01,Wunderground v.1.15,2013-02-27 16:18:00,
2013-02-27 11:20:00,74.8,67.1,29.93,NNW,327,0.0,1.0,77,0.00,,,0.01,Wunderground v.1.15,2013-02-27 16:20:00,
2013-02-27 11:21:00,74.8,67.1,29.93,NNW,327,0.0,1.0,77,0.00,,,0.01,Wunderground v.1.15,2013-02-27 16:21:00,
2013-02-27 11:23:00,74.9,67.2,29.93,NNW,327,0.0,1.0,77,0.00,,,0.01,Wunderground v.1.15,2013-02-27 16:23:00,
2013-02-27 11:25:00,74.9,66.8,29.93,NNW,327,0.0,1.0,76,0.00,,,0.01,Wunderground v.1.15,2013-02-27 16:25:00,
2013-02-27 11:26:00,75.0,66.9,29.93,NNW,327,0.0,1.0,76,0.00,,,0.01,Wunderground v.1.15,2013-02-27 16:26:00,
2013-02-27 11:27:00,75.0,66.9,29.93,NNW,327,0.0,1.0,76,0.00,,,0.01,Wunderground v.1.15,2013-02-27 16:27:00,
2013-02-27 11:29:00,75.0,67.3,29.93,NNW,327,0.0,1.0,77,0.00,,,0.01,Wunderground v.1.15,2013-02-27 16:29:00,
2013-02-27 11:30:00,75.0,66.9,29.93,NNW,328,0.0,4.0,76,0.00,,,0.01,Wunderground v.1.15,2013-02-27 16:30:00,
2013-02-27 11:32:00,75.0,66.9,29.93,NNW,328,0.0,4.0,76,0.00,,,0.01,Wunderground v.1.15,2013-02-27 16:32:00,
2013-02-27 11:34:00,74.8,66.7,29.93,NNW,328,0.0,4.0,76,0.00,,,0.01,Wunderground v.1.15,2013-02-27 16:34:00,
2013-02-27 11:36:00,74.8,67.1,29.93,NNW,328,0.0,4.0,77,0.00,,,0.01,Wunderground v.1.15,2013-02-27 16:36:00,
2013-02-27 11:37:00,74.8,67.1,29.93,NNW,328,0.0,4.0,77,0.00,,,0.01,Wunderground v.1.15,2013-02-27 16:37:00,
2013-02-27 11:38:00,74.8,66.7,29.93,NNW,328,0.0,4.0,76,0.00,,,0.01,Wunderground v.1.15,2013-02-27 16:38:00,
2013-02-27 11:39:00,74.6,66.5,29.93,NNW,328,0.0,4.0,76,0.00,,,0.01,Wunderground v.1.15,2013-02-27 16:39:00,
2013-02-27 11:41:00,74.6,66.1,29.93,NNW,327,2.0,2.0,75,0.00,,,0.01,Wunderground v.1.15,2013-02-27 16:41:00,
2013-02-27 11:43:00,74.4,66.0,29.93,NNW,327,0.0,4.0,75,0.00,,,0.01,Wunderground v.1.15,2013-02-27 16:43:00,
2013-02-27 11:44:00,74.4,65.6,29.93,NNW,327,0.0,4.0,74,0.00,,,0.01,Wunderground v.1.15,2013-02-27 16:44:00,
2013-02-27 11:47:00,74.2,65.4,29.93,NNW,327,0.0,4.0,74,0.00,,,0.01,Wunderground v.1.15,2013-02-27 16:47:00,
2013-02-27 11:49:00,74.3,66.2,29.93,NNW,327,0.0,4.0,76,0.00,,,0.01,Wunderground v.1.15,2013-02-27 16:49:00,
2013-02-27 11:50:00,74.3,66.2,29.93,NNW,327,3.0,3.0,76,0.00,,,0.01,Wunderground v.1.15,2013-02-27 16:50:00,
2013-02-27 11:52:00,74.3,66.2,29.93,NNW,327,0.0,3.0,76,0.00,,,0.01,Wunderground v.1.15,2013-02-27 16:52:00,
2013-02-27 11:54:00,74.2,65.8,29.93,NNW,340,0.0,4.0,75,0.00,,,0.01,Wunderground v.1.15,2013-02-27 16:54:00,
2013-02-27 11:55:00,74.2,65.8,29.93,NNW,338,3.0,4.0,75,0.00,,,0.01,Wunderground v.1.15,2013-02-27 16:55:00,
2013-02-27 11:57:00,74.1,66.0,29.93,NNW,335,0.0,4.0,76,0.00,,,0.02,Wunderground v.1.15,2013-02-27 16:57:00,
2013-02-27 11:59:00,73.8,66.5,29.93,NNW,335,0.0,0.0,78,0.00,,,0.02,Wunderground v.1.15,2013-02-27 16:59:00,
2013-02-27 12:00:00,73.7,66.4,29.93,NNW,333,0.0,4.0,78,0.00,,,0.02,Wunderground v.1.15,2013-02-27 17:00:00,
2013-02-27 12:04:00,73.2,66.3,29.93,NNW,333,0.0,4.0,79,0.00,,,0.02,Wunderground v.1.15,2013-02-27 17:04:00,
2013-02-27 12:05:00,73.0,66.1,29.93,NNW,333,0.0,4.0,79,0.00,,,0.02,Wunderground v.1.15,2013-02-27 17:05:00,
2013-02-27 12:06:00,72.9,65.6,29.93,NNW,333,0.0,4.0,78,0.00,,,0.02,Wunderground v.1.15,2013-02-27 17:06:00,
2013-02-27 12:07:00,72.8,65.5,29.93,NNW,333,0.0,4.0,78,0.00,,,0.02,Wunderground v.1.15,2013-02-27 17:07:00,
2013-02-27 12:09:00,72.7,65.4,29.93,NNW,333,0.0,4.0,78,0.00,,,0.02,Wunderground v.1.15,2013-02-27 17:09:00,
2013-02-27 12:10:00,72.7,65.8,29.93,NNW,333,0.0,0.0,79,0.00,,,0.02,Wunderground v.1.15,2013-02-27 17:10:00,
2013-02-27 12:11:00,72.7,65.8,29.93,NNW,333,0.0,0.0,79,0.00,,,0.02,Wunderground v.1.15,2013-02-27 17:11:00,
2013-02-27 12:13:00,72.7,65.8,29.93,NNW,333,0.0,0.0,79,0.00,,,0.02,Wunderground v.1.15,2013-02-27 17:13:00,
2013-02-27 12:14:00,72.7,65.8,29.93,NNW,333,0.0,0.0,79,0.00,,,0.02,Wunderground v.1.15,2013-02-27 17:14:00,
2013-02-27 12:16:00,72.6,65.7,29.93,NNW,333,0.0,0.0,79,0.00,,,0.02,Wunderground v.1.15,2013-02-27 17:16:00,
2013-02-27 12:17:00,72.5,65.6,29.93,NNW,333,0.0,0.0,79,0.00,,,0.02,Wunderground v.1.15,2013-02-27 17:17:00,
2013-02-27 12:18:00,72.5,66.0,29.93,NNW,333,0.0,0.0,80,0.00,,,0.02,Wunderground v.1.15,2013-02-27 17:18:00,
2013-02-27 12:21:00,72.3,65.8,29.93,NNW,333,0.0,0.0,80,0.00,,,0.02,Wunderground v.1.15,2013-02-27 17:21:00,
2013-02-27 12:22:00,72.3,65.8,29.93,NNW,333,0.0,0.0,80,0.00,,,0.02,Wunderground v.1.15,2013-02-27 17:22:00,
2013-02-27 12:23:00,72.2,66.0,29.93,NNW,333,0.0,0.0,81,0.00,,,0.03,Wunderground v.1.15,2013-02-27 17:23:00,
2013-02-27 12:27:00,71.9,66.8,29.93,NNW,333,0.0,0.0,84,0.17,,,0.04,Wunderground v.1.15,2013-02-27 17:27:00,
2013-02-27 12:28:00,71.6,66.5,29.93,NNW,333,0.0,0.0,84,0.13,,,0.05,Wunderground v.1.15,2013-02-27 17:28:00,
2013-02-27 12:32:00,71.3,66.9,29.92,NNW,333,0.0,0.0,86,0.13,,,0.05,Wunderground v.1.15,2013-02-27 17:32:00,
2013-02-27 12:33:00,71.3,66.9,29.92,NNW,333,0.0,0.0,86,0.13,,,0.05,Wunderground v.1.15,2013-02-27 17:33:00,
2013-02-27 12:35:00,71.3,67.6,29.92,NNW,333,0.0,0.0,88,0.08,,,0.05,Wunderground v.1.15,2013-02-27 17:35:00,
2013-02-27 12:38:00,71.1,67.0,29.92,NNW,333,0.0,0.0,87,0.06,,,0.05,Wunderground v.1.15,2013-02-27 17:38:00,
2013-02-27 12:41:00,70.8,66.7,29.92,NNW,333,0.0,0.0,87,0.04,,,0.05,Wunderground v.1.15,2013-02-27 17:41:00,
2013-02-27 12:43:00,70.7,66.3,29.92,NNW,333,0.0,0.0,86,0.04,,,0.05,Wunderground v.1.15,2013-02-27 17:43:00,
2013-02-27 12:44:00,70.8,66.7,29.92,NNW,333,0.0,0.0,87,0.04,,,0.05,Wunderground v.1.15,2013-02-27 17:44:00,
2013-02-27 12:47:00,70.7,66.6,29.92,NNW,333,0.0,0.0,87,0.00,,,0.05,Wunderground v.1.15,2013-02-27 17:47:00,
2013-02-27 12:48:00,70.7,66.3,29.92,NNW,333,0.0,0.0,86,0.00,,,0.05,Wunderground v.1.15,2013-02-27 17:48:00,
2013-02-27 12:49:00,70.6,66.2,29.92,NNW,333,0.0,0.0,86,0.00,,,0.05,Wunderground v.1.15,2013-02-27 17:49:00,
2013-02-27 12:50:00,70.6,66.2,29.92,NNW,333,0.0,0.0,86,0.00,,,0.05,Wunderground v.1.15,2013-02-27 17:50:00,
2013-02-27 12:52:00,70.6,65.9,29.92,NNW,333,0.0,0.0,85,0.00,,,0.05,Wunderground v.1.15,2013-02-27 17:52:00,
2013-02-27 12:53:00,70.6,65.9,29.91,NNW,333,0.0,0.0,85,0.00,,,0.05,Wunderground v.1.15,2013-02-27 17:53:00,
2013-02-27 12:54:00,70.6,65.9,29.92,NNW,333,0.0,0.0,85,0.00,,,0.05,Wunderground v.1.15,2013-02-27 17:54:00,
2013-02-27 12:55:00,70.5,65.8,29.91,NNW,333,0.0,0.0,85,0.00,,,0.05,Wunderground v.1.15,2013-02-27 17:55:00,
2013-02-27 12:58:00,70.4,65.3,29.92,NNW,333,0.0,0.0,84,0.00,,,0.06,Wunderground v.1.15,2013-02-27 17:58:00,
2013-02-27 12:59:00,70.3,65.6,29.91,NNW,333,0.0,0.0,85,0.00,,,0.06,Wunderground v.1.15,2013-02-27 17:59:00,
2013-02-27 13:01:00,70.1,65.4,29.91,NNW,333,0.0,0.0,85,0.00,,,0.06,Wunderground v.1.15,2013-02-27 18:01:00,
2013-02-27 13:03:00,70.0,65.6,29.91,NNW,333,0.0,0.0,86,0.00,,,0.06,Wunderground v.1.15,2013-02-27 18:03:00,
2013-02-27 13:04:00,70.1,65.7,29.91,NNW,333,0.0,0.0,86,0.00,,,0.06,Wunderground v.1.15,2013-02-27 18:04:00,
2013-02-27 13:05:00,70.1,65.7,29.91,NNW,333,0.0,0.0,86,0.00,,,0.06,Wunderground v.1.15,2013-02-27 18:05:00,
2013-02-27 13:07:00,70.0,66.0,29.91,NNW,334,1.0,1.0,87,0.00,,,0.06,Wunderground v.1.15,2013-02-27 18:07:00,
2013-02-27 13:09:00,69.9,65.5,29.92,NNW,334,0.0,1.0,86,0.00,,,0.06,Wunderground v.1.15,2013-02-27 18:09:00,
2013-02-27 13:10:00,69.9,65.9,29.92,NNW,334,1.0,1.0,87,0.00,,,0.06,Wunderground v.1.15,2013-02-27 18:10:00,
2013-02-27 13:11:00,69.9,65.9,29.92,NNW,334,0.0,1.0,87,0.00,,,0.06,Wunderground v.1.15,2013-02-27 18:11:00,
2013-02-27 13:13:00,69.9,65.9,29.92,NNW,334,0.0,1.0,87,0.00,,,0.06,Wunderground v.1.15,2013-02-27 18:13:00,
2013-02-27 13:15:00,69.9,65.9,29.91,NNW,334,0.0,1.0,87,0.00,,,0.06,Wunderground v.1.15,2013-02-27 18:15:00,
2013-02-27 13:16:00,69.9,65.9,29.91,NNW,334,0.0,1.0,87,0.00,,,0.06,Wunderground v.1.15,2013-02-27 18:16:00,
2013-02-27 13:18:00,69.8,65.8,29.91,NNW,333,0.0,1.0,87,0.00,,,0.06,Wunderground v.1.15,2013-02-27 18:18:00,
2013-02-27 13:20:00,69.7,65.7,29.91,NNW,333,0.0,0.0,87,0.24,,,0.07,Wunderground v.1.15,2013-02-27 18:20:00,
2013-02-27 13:22:00,69.7,65.7,29.91,NNW,335,0.0,2.0,87,0.24,,,0.08,Wunderground v.1.15,2013-02-27 18:22:00,
2013-02-27 13:23:00,69.7,66.0,29.92,NNW,335,0.0,2.0,88,0.19,,,0.08,Wunderground v.1.15,2013-02-27 18:23:00,
2013-02-27 13:25:00,69.8,66.1,29.92,NNW,335,0.0,2.0,88,0.14,,,0.09,Wunderground v.1.15,2013-02-27 18:25:00,
2013-02-27 13:26:00,69.8,66.1,29.92,NNW,334,0.0,2.0,88,0.14,,,0.09,Wunderground v.1.15,2013-02-27 18:26:00,
2013-02-27 13:28:00,69.5,65.8,29.92,NNW,334,0.0,2.0,88,0.21,,,0.10,Wunderground v.1.15,2013-02-27 18:28:00,
2013-02-27 13:29:00,69.2,65.5,29.92,NNW,335,0.0,2.0,88,0.21,,,0.10,Wunderground v.1.15,2013-02-27 18:29:00,
2013-02-27 13:30:00,69.1,65.4,29.92,NNW,334,0.0,0.0,88,0.26,,,0.11,Wunderground v.1.15,2013-02-27 18:30:00,
2013-02-27 13:31:00,69.0,65.6,29.92,NNW,335,0.0,0.0,89,0.40,,,0.12,Wunderground v.1.15,2013-02-27 18:31:00,
2013-02-27 13:33:00,68.9,65.5,29.92,NNW,335,0.0,0.0,89,0.42,,,0.13,Wunderground v.1.15,2013-02-27 18:33:00,
2013-02-27 13:35:00,68.8,65.7,29.92,NNW,335,0.0,0.0,90,0.31,,,0.13,Wunderground v.1.15,2013-02-27 18:35:00,
2013-02-27 13:36:00,68.6,65.5,29.92,NNW,335,0.0,0.0,90,0.55,,,0.15,Wunderground v.1.15,2013-02-27 18:36:00,
2013-02-27 13:38:00,68.4,65.4,29.92,NNW,334,0.0,0.0,90,0.66,,,0.17,Wunderground v.1.15,2013-02-27 18:38:00,
2013-02-27 13:40:00,68.0,65.0,29.92,NNW,334,0.0,0.0,90,0.50,,,0.18,Wunderground v.1.15,2013-02-27 18:40:00,
2013-02-27 13:41:00,68.0,65.0,29.92,NNW,334,0.0,0.0,90,0.50,,,0.19,Wunderground v.1.15,2013-02-27 18:41:00,
2013-02-27 13:42:00,68.0,65.3,29.92,NNW,335,0.0,0.0,91,0.43,,,0.20,Wunderground v.1.15,2013-02-27 18:42:00,
2013-02-27 13:43:00,67.9,65.2,29.92,NNW,338,0.0,0.0,91,0.36,,,0.20,Wunderground v.1.15,2013-02-27 18:43:00,
2013-02-27 13:45:00,67.9,65.2,29.91,NNW,338,0.0,0.0,91,0.31,,,0.21,Wunderground v.1.15,2013-02-27 18:45:00,
2013-02-27 13:46:00,67.8,65.1,29.91,NNW,338,0.0,0.0,91,0.19,,,0.21,Wunderground v.1.15,2013-02-27 18:46:00,
2013-02-27 13:47:00,67.7,65.0,29.91,NNW,338,0.0,0.0,91,0.16,,,0.21,Wunderground v.1.15,2013-02-27 18:47:00,
2013-02-27 13:48:00,67.7,65.0,29.91,NNW,338,0.0,0.0,91,0.15,,,0.22,Wunderground v.1.15,2013-02-27 18:48:00,
2013-02-27 13:50:00,67.6,65.2,29.91,NNW,338,0.0,0.0,92,0.32,,,0.23,Wunderground v.1.15,2013-02-27 18:50:00,
2013-02-27 13:52:00,67.6,65.2,29.91,NNW,338,0.0,0.0,92,0.28,,,0.24,Wunderground v.1.15,2013-02-27 18:52:00,
2013-02-27 13:53:00,67.6,65.2,29.91,NNW,338,0.0,0.0,92,0.23,,,0.24,Wunderground v.1.15,2013-02-27 18:53:00,
2013-02-27 13:55:00,67.7,65.3,29.91,NNW,338,0.0,0.0,92,0.14,,,0.25,Wunderground v.1.15,2013-02-27 18:55:00,
2013-02-27 13:57:00,67.7,65.3,29.91,NNW,338,0.0,0.0,92,0.14,,,0.25,Wunderground v.1.15,2013-02-27 18:57:00,
2013-02-27 13:58:00,67.7,65.3,29.91,NNW,338,0.0,0.0,92,0.14,,,0.25,Wunderground v.1.15,2013-02-27 18:58:00,
2013-02-27 13:59:00,67.7,65.6,29.91,NNW,338,0.0,0.0,93,0.13,,,0.25,Wunderground v.1.15,2013-02-27 18:59:00,
2013-02-27 14:01:00,67.8,65.7,29.90,NNW,338,0.0,0.0,93,0.10,,,0.25,Wunderground v.1.15,2013-02-27 19:01:00,
2013-02-27 14:03:00,67.9,65.8,29.90,NNW,338,0.0,0.0,93,0.08,,,0.26,Wunderground v.1.15,2013-02-27 19:03:00,
2013-02-27 14:04:00,68.0,65.9,29.90,NNW,338,0.0,0.0,93,0.08,,,0.26,Wunderground v.1.15,2013-02-27 19:04:00,
2013-02-27 14:05:00,67.9,65.8,29.90,NNW,336,0.0,0.0,93,0.08,,,0.26,Wunderground v.1.15,2013-02-27 19:05:00,
2013-02-27 14:06:00,67.9,65.8,29.90,NNW,336,0.0,0.0,93,0.08,,,0.26,Wunderground v.1.15,2013-02-27 19:06:00,
2013-02-27 14:09:00,67.8,65.7,29.90,NNW,336,0.0,0.0,93,0.11,,,0.27,Wunderground v.1.15,2013-02-27 19:09:00,
2013-02-27 14:10:00,67.7,65.6,29.90,NNW,336,0.0,0.0,93,0.11,,,0.27,Wunderground v.1.15,2013-02-27 19:10:00,
2013-02-27 14:11:00,67.8,65.7,29.90,NNW,336,0.0,0.0,93,0.11,,,0.27,Wunderground v.1.15,2013-02-27 19:11:00,
2013-02-27 14:12:00,67.8,65.7,29.90,NNW,336,0.0,0.0,93,0.11,,,0.27,Wunderground v.1.15,2013-02-27 19:12:00,
2013-02-27 14:15:00,67.9,66.1,29.90,NNW,336,0.0,0.0,94,0.08,,,0.27,Wunderground v.1.15,2013-02-27 19:15:00,
2013-02-27 14:16:00,67.8,66.0,29.90,NNW,336,0.0,0.0,94,0.07,,,0.27,Wunderground v.1.15,2013-02-27 19:16:00,
2013-02-27 14:17:00,67.8,65.7,29.90,NNW,336,0.0,0.0,93,0.06,,,0.27,Wunderground v.1.15,2013-02-27 19:17:00,
2013-02-27 14:20:00,67.7,65.9,29.90,NNW,336,0.0,0.0,94,0.05,,,0.27,Wunderground v.1.15,2013-02-27 19:20:00,
2013-02-27 14:22:00,67.8,66.0,29.90,NNW,336,0.0,0.0,94,0.04,,,0.27,Wunderground v.1.15,2013-02-27 19:22:00,
2013-02-27 14:26:00,68.0,66.2,29.89,NNW,336,0.0,0.0,94,0.00,,,0.27,Wunderground v.1.15,2013-02-27 19:26:00,
2013-02-27 14:27:00,68.1,66.6,29.89,NNW,336,0.0,0.0,95,0.00,,,0.27,Wunderground v.1.15,2013-02-27 19:27:00,
2013-02-27 14:28:00,68.2,66.4,29.89,NNW,336,0.0,0.0,94,0.00,,,0.27,Wunderground v.1.15,2013-02-27 19:28:00,
2013-02-27 14:31:00,68.4,66.6,29.89,NNW,336,0.0,0.0,94,0.00,,,0.27,Wunderground v.1.15,2013-02-27 19:31:00,
2013-02-27 14:32:00,68.5,66.7,29.89,NNW,336,0.0,0.0,94,0.00,,,0.27,Wunderground v.1.15,2013-02-27 19:32:00,
2013-02-27 14:33:00,68.6,66.8,29.89,NNW,336,0.0,0.0,94,0.00,,,0.27,Wunderground v.1.15,2013-02-27 19:33:00,
2013-02-27 14:36:00,68.7,66.9,29.89,NNW,336,0.0,0.0,94,0.00,,,0.27,Wunderground v.1.15,2013-02-27 19:36:00,
2013-02-27 14:37:00,68.6,66.8,29.89,NNW,336,0.0,0.0,94,0.00,,,0.27,Wunderground v.1.15,2013-02-27 19:37:00,
2013-02-27 14:38:00,68.6,66.8,29.89,NNW,336,0.0,0.0,94,0.00,,,0.27,Wunderground v.1.15,2013-02-27 19:38:00,
2013-02-27 14:41:00,68.5,66.7,29.89,NNW,336,0.0,0.0,94,0.00,,,0.27,Wunderground v.1.15,2013-02-27 19:41:00,
2013-02-27 14:42:00,68.5,66.7,29.89,NNW,336,0.0,0.0,94,0.00,,,0.27,Wunderground v.1.15,2013-02-27 19:42:00,
2013-02-27 14:43:00,68.7,66.9,29.89,NNW,336,0.0,0.0,94,0.00,,,0.27,Wunderground v.1.15,2013-02-27 19:43:00,
2013-02-27 14:47:00,68.5,66.7,29.89,NNW,336,0.0,0.0,94,0.00,,,0.27,Wunderground v.1.15,2013-02-27 19:47:00,
2013-02-27 14:48:00,68.6,66.8,29.89,NNW,336,0.0,0.0,94,0.00,,,0.27,Wunderground v.1.15,2013-02-27 19:48:00,
2013-02-27 14:49:00,68.7,67.2,29.89,NNW,336,0.0,0.0,95,0.00,,,0.27,Wunderground v.1.15,2013-02-27 19:49:00,
2013-02-27 14:52:00,68.6,66.8,29.88,NNW,336,0.0,0.0,94,0.00,,,0.27,Wunderground v.1.15,2013-02-27 19:52:00,
2013-02-27 14:54:00,68.6,66.8,29.88,NNW,336,0.0,0.0,94,0.00,,,0.27,Wunderground v.1.15,2013-02-27 19:54:00,
2013-02-27 14:55:00,68.9,67.4,29.88,NNW,336,0.0,0.0,95,0.00,,,0.27,Wunderground v.1.15,2013-02-27 19:55:00,
2013-02-27 14:58:00,68.8,67.3,29.88,NNW,336,0.0,0.0,95,0.00,,,0.27,Wunderground v.1.15,2013-02-27 19:58:00,
2013-02-27 14:59:00,68.7,67.2,29.88,NNW,336,0.0,0.0,95,0.00,,,0.27,Wunderground v.1.15,2013-02-27 19:59:00,
2013-02-27 15:00:00,68.7,66.9,29.88,NNW,336,0.0,0.0,94,0.00,,,0.27,Wunderground v.1.15,2013-02-27 20:00:00,
2013-02-27 15:03:00,68.5,66.7,29.88,NNW,336,0.0,0.0,94,0.00,,,0.27,Wunderground v.1.15,2013-02-27 20:03:00,
2013-02-27 15:04:00,68.3,66.5,29.88,NNW,336,0.0,0.0,94,0.00,,,0.27,Wunderground v.1.15,2013-02-27 20:04:00,
2013-02-27 15:06:00,68.4,66.6,29.88,NNW,336,0.0,0.0,94,0.00,,,0.27,Wunderground v.1.15,2013-02-27 20:06:00,
2013-02-27 15:08:00,68.5,66.7,29.88,NNW,336,0.0,0.0,94,0.00,,,0.27,Wunderground v.1.15,2013-02-27 20:08:00,
2013-02-27 15:10:00,68.8,67.3,29.88,NNW,336,0.0,0.0,95,0.00,,,0.27,Wunderground v.1.15,2013-02-27 20:10:00,
2013-02-27 15:11:00,68.8,67.3,29.88,NNW,336,0.0,0.0,95,0.00,,,0.27,Wunderground v.1.15,2013-02-27 20:11:00,
2013-02-27 15:13:00,68.9,67.4,29.88,NNW,336,0.0,0.0,95,0.00,,,0.27,Wunderground v.1.15,2013-02-27 20:13:00,
2013-02-27 15:14:00,69.0,67.5,29.88,NNW,336,0.0,0.0,95,0.00,,,0.27,Wunderground v.1.15,2013-02-27 20:14:00,
2013-02-27 15:15:00,69.0,67.5,29.88,NNW,336,0.0,0.0,95,0.00,,,0.27,Wunderground v.1.15,2013-02-27 20:15:00,
2013-02-27 15:16:00,68.9,67.4,29.88,NNW,336,0.0,0.0,95,0.00,,,0.27,Wunderground v.1.15,2013-02-27 20:16:00,
2013-02-27 15:18:00,69.0,67.5,29.88,NNW,336,0.0,0.0,95,0.00,,,0.27,Wunderground v.1.15,2013-02-27 20:18:00,
2013-02-27 15:19:00,69.1,67.6,29.88,NNW,336,0.0,0.0,95,0.00,,,0.27,Wunderground v.1.15,2013-02-27 20:19:00,
2013-02-27 15:21:00,69.0,67.2,29.88,NNW,336,0.0,0.0,94,0.00,,,0.27,Wunderground v.1.15,2013-02-27 20:21:00,
2013-02-27 15:23:00,69.0,67.5,29.88,NNW,336,0.0,0.0,95,0.00,,,0.27,Wunderground v.1.15,2013-02-27 20:23:00,
2013-02-27 15:24:00,69.0,67.5,29.88,NNW,336,0.0,0.0,95,0.00,,,0.27,Wunderground v.1.15,2013-02-27 20:24:00,
2013-02-27 15:26:00,69.1,67.6,29.88,NNW,336,0.0,0.0,95,0.00,,,0.27,Wunderground v.1.15,2013-02-27 20:26:00,
2013-02-27 15:27:00,69.1,67.6,29.88,NNW,336,0.0,0.0,95,0.00,,,0.27,Wunderground v.1.15,2013-02-27 20:27:00,
2013-02-27 15:28:00,69.0,67.2,29.88,NNW,336,0.0,0.0,94,0.00,,,0.27,Wunderground v.1.15,2013-02-27 20:28:00,
2013-02-27 15:29:00,68.9,67.1,29.88,NNW,336,0.0,0.0,94,0.00,,,0.27,Wunderground v.1.15,2013-02-27 20:29:00,
2013-02-27 15:32:00,69.0,67.5,29.88,NNW,336,0.0,0.0,95,0.00,,,0.27,Wunderground v.1.15,2013-02-27 20:32:00,
2013-02-27 15:34:00,68.9,67.1,29.88,NNW,336,0.0,0.0,94,0.00,,,0.27,Wunderground v.1.15,2013-02-27 20:34:00,
2013-02-27 15:35:00,68.8,67.0,29.88,NNW,336,0.0,0.0,94,0.00,,,0.27,Wunderground v.1.15,2013-02-27 20:35:00,
2013-02-27 15:38:00,68.9,67.4,29.88,NNW,336,0.0,0.0,95,0.00,,,0.27,Wunderground v.1.15,2013-02-27 20:38:00,
2013-02-27 15:39:00,69.0,67.5,29.88,NNW,336,0.0,0.0,95,0.00,,,0.27,Wunderground v.1.15,2013-02-27 20:39:00,
2013-02-27 15:41:00,68.7,66.9,29.88,NNW,336,0.0,0.0,94,0.00,,,0.27,Wunderground v.1.15,2013-02-27 20:41:00,
2013-02-27 15:43:00,68.5,66.7,29.88,NNW,336,0.0,0.0,94,0.00,,,0.27,Wunderground v.1.15,2013-02-27 20:43:00,
2013-02-27 15:44:00,68.5,66.7,29.87,NNW,336,0.0,0.0,94,0.00,,,0.27,Wunderground v.1.15,2013-02-27 20:44:00,
2013-02-27 15:46:00,68.4,66.6,29.87,NNW,336,0.0,0.0,94,0.00,,,0.27,Wunderground v.1.15,2013-02-27 20:46:00,
2013-02-27 15:48:00,68.6,66.8,29.88,NNW,336,0.0,0.0,94,0.00,,,0.27,Wunderground v.1.15,2013-02-27 20:48:00,
2013-02-27 15:49:00,68.7,66.9,29.87,NNW,336,0.0,0.0,94,0.00,,,0.27,Wunderground v.1.15,2013-02-27 20:49:00,
2013-02-27 15:51:00,69.1,67.3,29.88,NNW,336,0.0,0.0,94,0.00,,,0.27,Wunderground v.1.15,2013-02-27 20:51:00,
2013-02-27 15:53:00,69.2,67.4,29.88,NNW,336,0.0,0.0,94,0.00,,,0.27,Wunderground v.1.15,2013-02-27 20:53:00,
2013-02-27 15:54:00,69.2,67.4,29.88,NNW,336,0.0,0.0,94,0.00,,,0.27,Wunderground v.1.15,2013-02-27 20:54:00,
2013-02-27 15:55:00,69.3,67.5,29.87,NNW,336,0.0,0.0,94,0.00,,,0.27,Wunderground v.1.15,2013-02-27 20:55:00,
2013-02-27 15:57:00,69.3,67.5,29.88,NNW,336,0.0,0.0,94,0.00,,,0.27,Wunderground v.1.15,2013-02-27 20:57:00,
2013-02-27 15:59:00,69.2,67.1,29.87,NNW,336,0.0,0.0,93,0.00,,,0.27,Wunderground v.1.15,2013-02-27 20:59:00,
2013-02-27 16:00:00,69.2,67.1,29.87,NNW,336,0.0,0.0,93,0.00,,,0.27,Wunderground v.1.15,2013-02-27 21:00:00,
2013-02-27 16:03:00,69.3,67.5,29.87,NNW,336,0.0,0.0,94,0.00,,,0.27,Wunderground v.1.15,2013-02-27 21:03:00,
2013-02-27 16:04:00,69.3,67.5,29.87,NNW,336,0.0,0.0,94,0.00,,,0.27,Wunderground v.1.15,2013-02-27 21:04:00,
2013-02-27 16:05:00,69.4,67.6,29.87,NNW,336,0.0,0.0,94,0.00,,,0.27,Wunderground v.1.15,2013-02-27 21:05:00,
2013-02-27 16:08:00,69.2,67.1,29.88,NNW,336,0.0,0.0,93,0.00,,,0.27,Wunderground v.1.15,2013-02-27 21:08:00,
2013-02-27 16:10:00,69.4,67.6,29.88,NNW,336,0.0,0.0,94,0.00,,,0.27,Wunderground v.1.15,2013-02-27 21:10:00,
2013-02-27 16:12:00,69.4,67.6,29.88,NNW,336,0.0,0.0,94,0.00,,,0.27,Wunderground v.1.15,2013-02-27 21:12:00,
2013-02-27 16:13:00,69.4,67.6,29.88,NNW,336,0.0,0.0,94,0.00,,,0.27,Wunderground v.1.15,2013-02-27 21:13:00,
2013-02-27 16:16:00,69.4,67.6,29.88,NNW,336,0.0,0.0,94,0.00,,,0.27,Wunderground v.1.15,2013-02-27 21:16:00,
2013-02-27 16:18:00,69.3,67.2,29.89,NNW,336,0.0,0.0,93,0.00,,,0.27,Wunderground v.1.15,2013-02-27 21:18:00,
2013-02-27 16:21:00,69.3,67.5,29.89,NNW,336,0.0,0.0,94,0.00,,,0.27,Wunderground v.1.15,2013-02-27 21:21:00,
2013-02-27 16:23:00,69.1,67.0,29.89,NNW,336,0.0,0.0,93,0.00,,,0.27,Wunderground v.1.15,2013-02-27 21:23:00,
2013-02-27 16:26:00,69.0,66.9,29.89,NNW,334,0.0,2.0,93,0.00,,,0.27,Wunderground v.1.15,2013-02-27 21:26:00,
2013-02-27 16:28:00,68.9,66.8,29.89,NNW,334,0.0,2.0,93,0.00,,,0.27,Wunderground v.1.15,2013-02-27 21:28:00,
2013-02-27 16:29:00,68.9,66.8,29.89,NNW,334,0.0,2.0,93,0.00,,,0.27,Wunderground v.1.15,2013-02-27 21:29:00,
2013-02-27 16:32:00,68.8,66.7,29.89,NNW,334,0.0,2.0,93,0.00,,,0.27,Wunderground v.1.15,2013-02-27 21:32:00,
2013-02-27 16:33:00,68.8,66.7,29.89,NNW,334,0.0,2.0,93,0.00,,,0.27,Wunderground v.1.15,2013-02-27 21:33:00,
2013-02-27 16:34:00,68.8,67.0,29.89,NNW,334,0.0,2.0,94,0.00,,,0.27,Wunderground v.1.15,2013-02-27 21:34:00,
2013-02-27 16:35:00,68.8,67.0,29.89,NNW,334,0.0,2.0,94,0.00,,,0.27,Wunderground v.1.15,2013-02-27 21:35:00,
2013-02-27 16:37:00,68.7,66.9,29.89,NNW,334,0.0,2.0,94,0.00,,,0.27,Wunderground v.1.15,2013-02-27 21:37:00,
2013-02-27 16:38:00,68.7,66.9,29.89,NNW,334,0.0,2.0,94,0.00,,,0.27,Wunderground v.1.15,2013-02-27 21:38:00,
2013-02-27 16:39:00,68.6,66.5,29.89,NNW,334,0.0,2.0,93,0.00,,,0.27,Wunderground v.1.15,2013-02-27 21:39:00,
2013-02-27 16:40:00,68.6,66.8,29.89,NNW,334,0.0,0.0,94,0.00,,,0.27,Wunderground v.1.15,2013-02-27 21:40:00,
2013-02-27 16:43:00,68.6,66.8,29.89,NNW,332,0.0,5.0,94,0.00,,,0.27,Wunderground v.1.15,2013-02-27 21:43:00,
2013-02-27 16:44:00,68.6,66.8,29.89,NNW,332,0.0,5.0,94,0.00,,,0.27,Wunderground v.1.15,2013-02-27 21:44:00,
2013-02-27 16:45:00,68.6,66.8,29.89,NNW,332,0.0,5.0,94,0.00,,,0.27,Wunderground v.1.15,2013-02-27 21:45:00,
2013-02-27 16:49:00,68.3,66.5,29.89,NNW,340,1.0,5.0,94,0.00,,,0.27,Wunderground v.1.15,2013-02-27 21:49:00,
2013-02-27 16:50:00,68.1,66.3,29.89,NNW,340,0.0,1.0,94,0.00,,,0.27,Wunderground v.1.15,2013-02-27 21:50:00,
2013-02-27 16:51:00,68.1,66.3,29.89,NNW,340,0.0,1.0,94,0.00,,,0.27,Wunderground v.1.15,2013-02-27 21:51:00,
2013-02-27 16:54:00,67.8,66.0,29.89,NNW,336,0.0,4.0,94,0.00,,,0.27,Wunderground v.1.15,2013-02-27 21:54:00,
2013-02-27 16:55:00,67.7,65.9,29.89,NNW,337,0.0,4.0,94,0.00,,,0.27,Wunderground v.1.15,2013-02-27 21:55:00,
2013-02-27 16:58:00,67.5,65.7,29.89,NNW,331,5.0,5.0,94,0.00,,,0.27,Wunderground v.1.15,2013-02-27 21:58:00,
2013-02-27 16:59:00,67.3,65.5,29.89,NNW,338,0.0,6.0,94,0.00,,,0.27,Wunderground v.1.15,2013-02-27 21:59:00,
2013-02-27 17:00:00,67.3,65.5,29.89,NNW,338,0.0,1.0,94,0.00,,,0.27,Wunderground v.1.15,2013-02-27 22:00:00,
2013-02-27 17:02:00,67.2,65.4,29.89,NNW,338,2.0,2.0,94,0.00,,,0.27,Wunderground v.1.15,2013-02-27 22:02:00,
2013-02-27 17:03:00,67.1,65.3,29.89,NNW,338,0.0,2.0,94,0.00,,,0.27,Wunderground v.1.15,2013-02-27 22:03:00,
2013-02-27 17:05:00,67.0,65.2,29.89,NNW,348,4.0,4.0,94,0.00,,,0.27,Wunderground v.1.15,2013-02-27 22:05:00,
2013-02-27 17:07:00,66.9,65.1,29.89,North,355,0.0,5.0,94,0.00,,,0.27,Wunderground v.1.15,2013-02-27 22:07:00,
2013-02-27 17:08:00,66.9,65.1,29.89,NNW,348,3.0,5.0,94,0.00,,,0.27,Wunderground v.1.15,2013-02-27 22:08:00,
2013-02-27 17:10:00,66.8,65.3,29.89,North,349,0.0,4.0,95,0.00,,,0.27,Wunderground v.1.15,2013-02-27 22:10:00,
2013-02-27 17:11:00,66.8,65.3,29.89,North,349,0.0,4.0,95,0.00,,,0.27,Wunderground v.1.15,2013-02-27 22:11:00,
2013-02-27 17:13:00,66.7,65.2,29.89,NNW,344,0.0,5.0,95,0.00,,,0.27,Wunderground v.1.15,2013-02-27 22:13:00,
2013-02-27 17:14:00,66.7,65.2,29.90,NNW,344,4.0,5.0,95,0.00,,,0.27,Wunderground v.1.15,2013-02-27 22:14:00,
2013-02-27 17:16:00,66.7,65.2,29.89,NNW,340,0.0,5.0,95,0.00,,,0.27,Wunderground v.1.15,2013-02-27 22:16:00,
2013-02-27 17:17:00,66.7,65.2,29.89,NNW,340,0.0,5.0,95,0.00,,,0.27,Wunderground v.1.15,2013-02-27 22:17:00,
2013-02-27 17:19:00,66.7,65.2,29.89,NNW,340,0.0,5.0,95,0.00,,,0.27,Wunderground v.1.15,2013-02-27 22:19:00,
2013-02-27 17:21:00,66.7,65.2,29.89,NNW,340,0.0,4.0,95,0.00,,,0.27,Wunderground v.1.15,2013-02-27 22:21:00,
2013-02-27 17:22:00,66.6,65.1,29.89,NNW,340,0.0,4.0,95,0.00,,,0.27,Wunderground v.1.15,2013-02-27 22:22:00,
2013-02-27 17:24:00,66.6,65.1,29.89,NNW,340,0.0,4.0,95,0.00,,,0.27,Wunderground v.1.15,2013-02-27 22:24:00,
2013-02-27 17:26:00,66.6,65.1,29.89,NNW,340,0.0,4.0,95,0.00,,,0.27,Wunderground v.1.15,2013-02-27 22:26:00,
2013-02-27 17:27:00,66.6,65.1,29.89,NNW,340,0.0,4.0,95,0.00,,,0.27,Wunderground v.1.15,2013-02-27 22:27:00,
2013-02-27 17:30:00,66.6,65.1,29.89,NNW,336,0.0,0.0,95,0.00,,,0.27,Wunderground v.1.15,2013-02-27 22:30:00,
2013-02-27 17:31:00,66.5,65.0,29.89,NNW,337,0.0,4.0,95,0.00,,,0.27,Wunderground v.1.15,2013-02-27 22:31:00,
2013-02-27 17:32:00,66.5,65.0,29.89,NNW,340,0.0,4.0,95,0.00,,,0.27,Wunderground v.1.15,2013-02-27 22:32:00,
2013-02-27 17:33:00,66.5,65.0,29.89,NNW,340,0.0,4.0,95,0.00,,,0.27,Wunderground v.1.15,2013-02-27 22:33:00,
2013-02-27 17:36:00,66.4,64.9,29.89,NNW,339,0.0,4.0,95,0.00,,,0.27,Wunderground v.1.15,2013-02-27 22:36:00,
2013-02-27 17:38:00,66.4,64.9,29.89,NNW,339,0.0,4.0,95,0.00,,,0.27,Wunderground v.1.15,2013-02-27 22:38:00,
2013-02-27 17:41:00,66.4,64.9,29.89,NNW,338,0.0,4.0,95,0.00,,,0.27,Wunderground v.1.15,2013-02-27 22:41:00,
2013-02-27 17:42:00,66.4,64.9,29.89,NNW,338,0.0,4.0,95,0.00,,,0.27,Wunderground v.1.15,2013-02-27 22:42:00,
2013-02-27 17:43:00,66.3,64.8,29.89,NNW,338,0.0,4.0,95,0.00,,,0.27,Wunderground v.1.15,2013-02-27 22:43:00,
2013-02-27 17:46:00,66.3,64.8,29.90,NNW,338,0.0,4.0,95,0.00,,,0.27,Wunderground v.1.15,2013-02-27 22:46:00,
2013-02-27 17:47:00,66.3,64.8,29.89,NNW,338,0.0,4.0,95,0.00,,,0.27,Wunderground v.1.15,2013-02-27 22:47:00,
2013-02-27 17:49:00,66.3,64.8,29.90,NNW,338,0.0,4.0,95,0.00,,,0.27,Wunderground v.1.15,2013-02-27 22:49:00,
2013-02-27 17:51:00,66.3,64.8,29.90,NNW,338,0.0,0.0,95,0.00,,,0.27,Wunderground v.1.15,2013-02-27 22:51:00,
2013-02-27 17:53:00,66.3,64.8,29.90,NNW,338,0.0,0.0,95,0.00,,,0.27,Wunderground v.1.15,2013-02-27 22:53:00,
2013-02-27 17:54:00,66.3,64.8,29.90,NNW,338,0.0,0.0,95,0.00,,,0.27,Wunderground v.1.15,2013-02-27 22:54:00,
2013-02-27 17:56:00,66.2,64.7,29.90,NNW,338,0.0,0.0,95,0.00,,,0.27,Wunderground v.1.15,2013-02-27 22:56:00,
2013-02-27 17:58:00,66.2,64.7,29.90,NNW,338,0.0,0.0,95,0.00,,,0.27,Wunderground v.1.15,2013-02-27 22:58:00,
2013-02-27 17:59:00,66.2,64.7,29.90,NNW,338,0.0,2.0,95,0.00,,,0.27,Wunderground v.1.15,2013-02-27 22:59:00,
2013-02-27 18:02:00,66.2,64.7,29.90,NNW,338,0.0,0.0,95,0.00,,,0.27,Wunderground v.1.15,2013-02-27 23:02:00,
2013-02-27 18:03:00,66.2,64.7,29.90,NNW,338,2.0,2.0,95,0.00,,,0.27,Wunderground v.1.15,2013-02-27 23:03:00,
2013-02-27 18:05:00,66.2,64.7,29.90,NNW,338,0.0,2.0,95,0.00,,,0.27,Wunderground v.1.15,2013-02-27 23:05:00,
2013-02-27 18:07:00,66.2,65.0,29.90,NNW,338,0.0,4.0,96,0.00,,,0.27,Wunderground v.1.15,2013-02-27 23:07:00,
2013-02-27 18:08:00,66.2,64.7,29.90,NNW,338,0.0,4.0,95,0.00,,,0.27,Wunderground v.1.15,2013-02-27 23:08:00,
2013-02-27 18:10:00,66.2,65.0,29.90,NNW,338,0.0,0.0,96,0.00,,,0.27,Wunderground v.1.15,2013-02-27 23:10:00,
2013-02-27 18:12:00,66.1,64.6,29.90,NNW,338,0.0,4.0,95,0.00,,,0.27,Wunderground v.1.15,2013-02-27 23:12:00,
2013-02-27 18:13:00,66.1,64.6,29.89,NNW,338,0.0,4.0,95,0.00,,,0.27,Wunderground v.1.15,2013-02-27 23:13:00,
2013-02-27 18:15:00,66.1,64.6,29.89,NNW,338,0.0,4.0,95,0.00,,,0.27,Wunderground v.1.15,2013-02-27 23:15:00,
2013-02-27 18:17:00,66.0,64.5,29.90,NNW,338,0.0,4.0,95,0.00,,,0.27,Wunderground v.1.15,2013-02-27 23:17:00,
2013-02-27 18:18:00,66.0,64.5,29.90,NNW,338,0.0,4.0,95,0.00,,,0.27,Wunderground v.1.15,2013-02-27 23:18:00,
2013-02-27 18:20:00,66.0,64.5,29.90,NNW,338,0.0,0.0,95,0.00,,,0.27,Wunderground v.1.15,2013-02-27 23:20:00,
2013-02-27 18:23:00,66.0,64.5,29.90,NNW,338,0.0,0.0,95,0.00,,,0.27,Wunderground v.1.15,2013-02-27 23:23:00,
2013-02-27 18:25:00,66.0,64.5,29.90,NNW,338,0.0,0.0,95,0.00,,,0.27,Wunderground v.1.15,2013-02-27 23:25:00,
2013-02-27 18:28:00,65.9,64.4,29.90,NNW,338,0.0,0.0,95,0.00,,,0.27,Wunderground v.1.15,2013-02-27 23:28:00,
2013-02-27 18:30:00,65.9,64.4,29.90,NNW,338,0.0,0.0,95,0.00,,,0.27,Wunderground v.1.15,2013-02-27 23:30:00,
2013-02-27 18:31:00,65.9,64.4,29.90,NNW,338,0.0,0.0,95,0.00,,,0.27,Wunderground v.1.15,2013-02-27 23:31:00,
2013-02-27 18:33:00,66.0,64.5,29.90,NNW,338,0.0,0.0,95,0.00,,,0.27,Wunderground v.1.15,2013-02-27 23:33:00,
2013-02-27 18:36:00,66.1,64.9,29.90,NNW,338,0.0,0.0,96,0.00,,,0.27,Wunderground v.1.15,2013-02-27 23:36:00,
2013-02-27 18:37:00,66.0,64.8,29.90,NNW,338,0.0,0.0,96,0.00,,,0.27,Wunderground v.1.15,2013-02-27 23:37:00,
2013-02-27 18:38:00,65.9,64.4,29.90,NNW,338,0.0,0.0,95,0.00,,,0.27,Wunderground v.1.15,2013-02-27 23:38:00,
2013-02-27 18:41:00,65.9,64.7,29.90,NNW,338,0.0,0.0,96,0.00,,,0.27,Wunderground v.1.15,2013-02-27 23:41:00,
2013-02-27 18:42:00,65.9,64.7,29.90,NNW,338,0.0,0.0,96,0.00,,,0.27,Wunderground v.1.15,2013-02-27 23:42:00,
2013-02-27 18:43:00,65.9,64.7,29.90,NNW,338,0.0,0.0,96,0.00,,,0.27,Wunderground v.1.15,2013-02-27 23:43:00,
2013-02-27 18:47:00,65.8,64.6,29.90,NNW,338,0.0,0.0,96,0.00,,,0.27,Wunderground v.1.15,2013-02-27 23:47:00,
2013-02-27 18:48:00,65.8,64.6,29.90,NNW,338,0.0,0.0,96,0.00,,,0.27,Wunderground v.1.15,2013-02-27 23:48:00,
2013-02-27 18:52:00,65.8,64.6,29.90,NNW,338,0.0,0.0,96,0.00,,,0.27,Wunderground v.1.15,2013-02-27 23:52:00,
2013-02-27 18:53:00,65.8,64.6,29.90,NNW,338,0.0,0.0,96,0.00,,,0.27,Wunderground v.1.15,2013-02-27 23:53:00,
2013-02-27 18:54:00,65.8,64.6,29.90,NNW,338,0.0,0.0,96,0.00,,,0.27,Wunderground v.1.15,2013-02-27 23:54:00,
2013-02-27 18:57:00,65.8,64.6,29.90,NNW,338,0.0,0.0,96,0.00,,,0.27,Wunderground v.1.15,2013-02-27 23:57:00,
2013-02-27 18:58:00,65.8,64.6,29.90,NNW,338,0.0,0.0,96,0.00,,,0.27,Wunderground v.1.15,2013-02-27 23:58:00,
2013-02-27 18:59:00,65.7,64.5,29.90,NNW,338,0.0,0.0,96,0.00,,,0.27,Wunderground v.1.15,2013-02-27 23:59:00,
2013-02-27 19:02:00,65.7,64.5,29.90,NNW,338,0.0,0.0,96,0.00,,,0.27,Wunderground v.1.15,2013-02-28 00:02:00,
2013-02-27 19:03:00,65.7,64.5,29.90,NNW,338,0.0,0.0,96,0.00,,,0.27,Wunderground v.1.15,2013-02-28 00:03:00,
2013-02-27 19:04:00,65.7,64.5,29.90,NNW,338,0.0,0.0,96,0.00,,,0.27,Wunderground v.1.15,2013-02-28 00:04:00,
2013-02-27 19:07:00,65.7,64.5,29.91,NNW,338,0.0,0.0,96,0.00,,,0.27,Wunderground v.1.15,2013-02-28 00:07:00,
2013-02-27 19:08:00,65.7,64.5,29.90,NNW,338,0.0,0.0,96,0.00,,,0.27,Wunderground v.1.15,2013-02-28 00:08:00,
2013-02-27 19:09:00,65.7,64.5,29.90,NNW,338,0.0,0.0,96,0.00,,,0.27,Wunderground v.1.15,2013-02-28 00:09:00,
2013-02-27 19:12:00,65.8,64.6,29.90,NNW,338,0.0,0.0,96,0.00,,,0.27,Wunderground v.1.15,2013-02-28 00:12:00,
2013-02-27 19:15:00,65.8,64.6,29.90,NNW,338,0.0,0.0,96,0.00,,,0.27,Wunderground v.1.15,2013-02-28 00:15:00,
2013-02-27 19:17:00,65.8,64.6,29.91,NNW,338,0.0,0.0,96,0.00,,,0.27,Wunderground v.1.15,2013-02-28 00:17:00,
2013-02-27 19:19:00,65.8,64.6,29.91,NNW,338,0.0,0.0,96,0.00,,,0.27,Wunderground v.1.15,2013-02-28 00:19:00,
2013-02-27 19:20:00,65.8,64.6,29.91,NNW,338,0.0,0.0,96,0.00,,,0.27,Wunderground v.1.15,2013-02-28 00:20:00,
2013-02-27 19:22:00,65.8,64.6,29.91,NNW,338,0.0,0.0,96,0.00,,,0.27,Wunderground v.1.15,2013-02-28 00:22:00,
2013-02-27 19:25:00,65.8,64.6,29.91,NNW,338,0.0,0.0,96,0.00,,,0.27,Wunderground v.1.15,2013-02-28 00:25:00,
2013-02-27 19:26:00,65.8,64.6,29.91,NNW,338,0.0,0.0,96,0.00,,,0.27,Wunderground v.1.15,2013-02-28 00:26:00,
2013-02-27 19:27:00,65.8,64.6,29.91,NNW,338,0.0,0.0,96,0.00,,,0.27,Wunderground v.1.15,2013-02-28 00:27:00,
2013-02-27 19:30:00,65.7,64.5,29.91,NNW,338,0.0,0.0,96,0.00,,,0.27,Wunderground v.1.15,2013-02-28 00:30:00,
2013-02-27 19:31:00,65.7,64.5,29.91,NNW,338,0.0,0.0,96,0.00,,,0.27,Wunderground v.1.15,2013-02-28 00:31:00,
2013-02-27 19:32:00,65.7,64.5,29.91,NNW,338,0.0,0.0,96,0.00,,,0.27,Wunderground v.1.15,2013-02-28 00:32:00,
2013-02-27 19:36:00,65.8,64.6,29.92,NNW,338,0.0,0.0,96,0.00,,,0.27,Wunderground v.1.15,2013-02-28 00:36:00,
2013-02-27 19:37:00,65.8,64.6,29.92,NNW,338,0.0,0.0,96,0.00,,,0.27,Wunderground v.1.15,2013-02-28 00:37:00,
2013-02-27 19:41:00,65.9,64.7,29.92,NNW,338,0.0,0.0,96,0.00,,,0.27,Wunderground v.1.15,2013-02-28 00:41:00,
2013-02-27 19:43:00,65.9,64.7,29.92,NNW,338,0.0,0.0,96,0.00,,,0.27,Wunderground v.1.15,2013-02-28 00:43:00,
2013-02-27 19:46:00,65.9,64.7,29.92,NNW,338,0.0,0.0,96,0.00,,,0.27,Wunderground v.1.15,2013-02-28 00:46:00,
2013-02-27 19:48:00,65.9,64.4,29.92,NNW,338,0.0,0.0,95,0.00,,,0.27,Wunderground v.1.15,2013-02-28 00:48:00,
2013-02-27 19:52:00,65.9,64.4,29.92,NNW,338,0.0,0.0,95,0.00,,,0.27,Wunderground v.1.15,2013-02-28 00:52:00,
2013-02-27 19:53:00,65.9,64.4,29.92,NNW,338,0.0,0.0,95,0.00,,,0.27,Wunderground v.1.15,2013-02-28 00:53:00,
2013-02-27 19:57:00,65.9,64.4,29.92,NNW,338,0.0,0.0,95,0.00,,,0.27,Wunderground v.1.15,2013-02-28 00:57:00,
2013-02-27 19:58:00,65.9,64.4,29.92,NNW,338,0.0,0.0,95,0.00,,,0.27,Wunderground v.1.15,2013-02-28 00:58:00,
2013-02-27 20:02:00,66.0,64.5,29.92,NNW,338,0.0,0.0,95,0.00,,,0.27,Wunderground v.1.15,2013-02-28 01:02:00,
2013-02-27 20:03:00,66.0,64.5,29.92,NNW,338,0.0,0.0,95,0.00,,,0.27,Wunderground v.1.15,2013-02-28 01:03:00,
2013-02-27 20:04:00,66.0,64.5,29.92,NNW,338,0.0,0.0,95,0.00,,,0.27,Wunderground v.1.15,2013-02-28 01:04:00,
2013-02-27 20:07:00,66.0,64.5,29.93,NNW,338,0.0,0.0,95,0.00,,,0.28,Wunderground v.1.15,2013-02-28 01:07:00,
2013-02-27 20:08:00,66.0,64.5,29.93,NNW,338,0.0,0.0,95,0.00,,,0.28,Wunderground v.1.15,2013-02-28 01:08:00,
2013-02-27 20:09:00,66.0,64.5,29.93,NNW,338,0.0,0.0,95,0.00,,,0.28,Wunderground v.1.15,2013-02-28 01:09:00,
2013-02-27 20:13:00,66.0,64.5,29.93,NNW,338,0.0,0.0,95,0.00,,,0.28,Wunderground v.1.15,2013-02-28 01:13:00,
2013-02-27 20:14:00,66.0,64.5,29.93,NNW,338,0.0,0.0,95,0.00,,,0.28,Wunderground v.1.15,2013-02-28 01:14:00,
2013-02-27 20:15:00,66.0,64.5,29.93,NNW,338,0.0,0.0,95,0.00,,,0.28,Wunderground v.1.15,2013-02-28 01:15:00,
2013-02-27 20:19:00,66.0,64.5,29.93,NNW,338,0.0,0.0,95,0.00,,,0.28,Wunderground v.1.15,2013-02-28 01:19:00,
2013-02-27 20:20:00,66.1,64.6,29.93,NNW,338,0.0,0.0,95,0.00,,,0.28,Wunderground v.1.15,2013-02-28 01:20:00,
2013-02-27 20:24:00,66.1,64.9,29.93,NNW,338,0.0,0.0,96,0.00,,,0.28,Wunderground v.1.15,2013-02-28 01:24:00,
2013-02-27 20:25:00,66.1,64.9,29.93,NNW,338,0.0,0.0,96,0.00,,,0.28,Wunderground v.1.15,2013-02-28 01:25:00,
2013-02-27 20:26:00,66.1,64.9,29.92,NNW,338,0.0,0.0,96,0.00,,,0.28,Wunderground v.1.15,2013-02-28 01:26:00,
2013-02-27 20:29:00,66.1,64.9,29.93,NNW,338,0.0,0.0,96,0.00,,,0.28,Wunderground v.1.15,2013-02-28 01:29:00,
2013-02-27 20:30:00,66.1,64.9,29.93,NNW,338,0.0,0.0,96,0.00,,,0.28,Wunderground v.1.15,2013-02-28 01:30:00,
2013-02-27 20:31:00,66.1,64.9,29.93,NNW,338,0.0,0.0,96,0.00,,,0.28,Wunderground v.1.15,2013-02-28 01:31:00,
2013-02-27 20:34:00,66.2,65.0,29.93,NNW,338,0.0,0.0,96,0.00,,,0.28,Wunderground v.1.15,2013-02-28 01:34:00,
2013-02-27 20:35:00,66.2,65.0,29.93,NNW,338,0.0,0.0,96,0.00,,,0.28,Wunderground v.1.15,2013-02-28 01:35:00,
2013-02-27 20:36:00,66.3,65.1,29.93,NNW,338,0.0,0.0,96,0.00,,,0.28,Wunderground v.1.15,2013-02-28 01:36:00,
2013-02-27 20:40:00,66.3,65.1,29.93,NNW,338,0.0,0.0,96,0.00,,,0.28,Wunderground v.1.15,2013-02-28 01:40:00,
2013-02-27 20:41:00,66.3,65.1,29.93,NNW,338,0.0,0.0,96,0.00,,,0.28,Wunderground v.1.15,2013-02-28 01:41:00,
2013-02-27 20:45:00,66.3,65.1,29.93,NNW,338,0.0,0.0,96,0.00,,,0.29,Wunderground v.1.15,2013-02-28 01:45:00,
2013-02-27 20:46:00,66.3,65.1,29.93,NNW,338,0.0,0.0,96,0.00,,,0.29,Wunderground v.1.15,2013-02-28 01:46:00,
2013-02-27 20:47:00,66.3,65.1,29.93,NNW,338,0.0,0.0,96,0.00,,,0.29,Wunderground v.1.15,2013-02-28 01:47:00,
2013-02-27 20:50:00,66.3,65.1,29.93,NNW,338,0.0,0.0,96,0.00,,,0.29,Wunderground v.1.15,2013-02-28 01:50:00,
2013-02-27 20:52:00,66.3,65.1,29.93,NNW,338,0.0,0.0,96,0.06,,,0.30,Wunderground v.1.15,2013-02-28 01:52:00,
2013-02-27 20:55:00,66.4,65.2,29.93,NNW,338,0.0,0.0,96,0.06,,,0.30,Wunderground v.1.15,2013-02-28 01:55:00,
2013-02-27 20:56:00,66.4,65.2,29.93,NNW,338,0.0,0.0,96,0.06,,,0.30,Wunderground v.1.15,2013-02-28 01:56:00,
2013-02-27 20:57:00,66.4,65.2,29.93,NNW,338,0.0,0.0,96,0.06,,,0.30,Wunderground v.1.15,2013-02-28 01:57:00,
2013-02-27 20:58:00,66.4,65.2,29.93,NNW,338,0.0,0.0,96,0.06,,,0.30,Wunderground v.1.15,2013-02-28 01:58:00,
2013-02-27 21:01:00,66.4,65.2,29.93,NNW,338,0.0,0.0,96,0.06,,,0.30,Wunderground v.1.15,2013-02-28 02:01:00,
2013-02-27 21:02:00,66.4,65.2,29.93,NNW,338,0.0,0.0,96,0.06,,,0.30,Wunderground v.1.15,2013-02-28 02:02:00,
2013-02-27 21:03:00,66.3,65.1,29.93,NNW,338,0.0,0.0,96,0.05,,,0.30,Wunderground v.1.15,2013-02-28 02:03:00,
2013-02-27 21:06:00,66.2,65.0,29.93,NNW,338,0.0,0.0,96,0.04,,,0.30,Wunderground v.1.15,2013-02-28 02:06:00,
2013-02-27 21:07:00,66.1,64.9,29.93,NNW,338,0.0,0.0,96,0.04,,,0.30,Wunderground v.1.15,2013-02-28 02:07:00,
2013-02-27 21:09:00,66.1,64.9,29.93,NNW,338,0.0,0.0,96,0.04,,,0.30,Wunderground v.1.15,2013-02-28 02:09:00,
2013-02-27 21:11:00,66.1,64.9,29.93,NNW,338,0.0,0.0,96,0.00,,,0.31,Wunderground v.1.15,2013-02-28 02:11:00,
2013-02-27 21:13:00,66.1,64.9,29.93,NNW,338,0.0,0.0,96,0.18,,,0.32,Wunderground v.1.15,2013-02-28 02:13:00,
2013-02-27 21:14:00,65.9,64.7,29.93,NNW,338,0.0,0.0,96,0.18,,,0.32,Wunderground v.1.15,2013-02-28 02:14:00,
2013-02-27 21:17:00,65.9,64.7,29.93,NNW,338,0.0,0.0,96,0.13,,,0.32,Wunderground v.1.15,2013-02-28 02:17:00,
2013-02-27 21:18:00,65.8,64.6,29.92,NNW,338,0.0,0.0,96,0.10,,,0.32,Wunderground v.1.15,2013-02-28 02:18:00,
2013-02-27 21:19:00,65.8,64.6,29.92,NNW,338,0.0,0.0,96,0.09,,,0.32,Wunderground v.1.15,2013-02-28 02:19:00,
2013-02-27 21:20:00,65.8,64.6,29.93,NNW,338,0.0,0.0,96,0.07,,,0.32,Wunderground v.1.15,2013-02-28 02:20:00,
2013-02-27 21:22:00,65.7,64.5,29.93,NNW,338,0.0,0.0,96,0.06,,,0.32,Wunderground v.1.15,2013-02-28 02:22:00,
2013-02-27 21:23:00,65.7,64.5,29.92,NNW,338,0.0,0.0,96,0.05,,,0.32,Wunderground v.1.15,2013-02-28 02:23:00,
2013-02-27 21:24:00,65.6,64.4,29.93,NNW,338,0.0,0.0,96,0.05,,,0.33,Wunderground v.1.15,2013-02-28 02:24:00,
2013-02-27 21:25:00,65.6,64.4,29.93,NNW,338,0.0,0.0,96,0.05,,,0.33,Wunderground v.1.15,2013-02-28 02:25:00,
2013-02-27 21:27:00,65.5,64.3,29.93,NNW,338,0.0,0.0,96,0.05,,,0.33,Wunderground v.1.15,2013-02-28 02:27:00,
2013-02-27 21:28:00,65.5,64.3,29.93,NNW,338,0.0,0.0,96,0.05,,,0.33,Wunderground v.1.15,2013-02-28 02:28:00,
2013-02-27 21:30:00,65.5,64.3,29.93,NNW,338,0.0,0.0,96,0.05,,,0.33,Wunderground v.1.15,2013-02-28 02:30:00,
2013-02-27 21:32:00,65.4,64.2,29.93,NNW,338,0.0,0.0,96,0.05,,,0.33,Wunderground v.1.15,2013-02-28 02:32:00,
2013-02-27 21:34:00,65.4,64.2,29.93,NNW,338,0.0,0.0,96,0.05,,,0.33,Wunderground v.1.15,2013-02-28 02:34:00,
2013-02-27 21:35:00,65.4,64.2,29.92,NNW,338,0.0,0.0,96,0.05,,,0.33,Wunderground v.1.15,2013-02-28 02:35:00,
2013-02-27 21:36:00,65.3,64.1,29.92,NNW,338,0.0,0.0,96,0.05,,,0.33,Wunderground v.1.15,2013-02-28 02:36:00,
2013-02-27 21:37:00,65.3,64.1,29.93,NNW,338,0.0,0.0,96,0.04,,,0.33,Wunderground v.1.15,2013-02-28 02:37:00,
2013-02-27 21:39:00,65.3,64.1,29.92,NNW,338,0.0,0.0,96,0.04,,,0.33,Wunderground v.1.15,2013-02-28 02:39:00,
2013-02-27 21:40:00,65.2,64.0,29.92,NNW,338,0.0,0.0,96,0.04,,,0.33,Wunderground v.1.15,2013-02-28 02:40:00,
2013-02-27 21:41:00,65.2,64.0,29.93,NNW,338,0.0,0.0,96,0.00,,,0.33,Wunderground v.1.15,2013-02-28 02:41:00,
2013-02-27 21:42:00,65.2,64.0,29.93,NNW,338,0.0,0.0,96,0.00,,,0.33,Wunderground v.1.15,2013-02-28 02:42:00,
2013-02-27 21:44:00,65.2,64.0,29.93,NNW,338,0.0,0.0,96,0.00,,,0.33,Wunderground v.1.15,2013-02-28 02:44:00,
2013-02-27 21:45:00,65.2,64.0,29.93,NNW,338,0.0,0.0,96,0.00,,,0.33,Wunderground v.1.15,2013-02-28 02:45:00,
2013-02-27 21:47:00,65.2,64.0,29.93,NNW,338,0.0,0.0,96,0.00,,,0.33,Wunderground v.1.15,2013-02-28 02:47:00,
2013-02-27 21:48:00,65.2,64.0,29.93,NNW,338,0.0,0.0,96,0.00,,,0.33,Wunderground v.1.15,2013-02-28 02:48:00,
2013-02-27 21:50:00,65.2,64.0,29.93,NNW,338,0.0,0.0,96,0.00,,,0.33,Wunderground v.1.15,2013-02-28 02:50:00,
2013-02-27 21:53:00,65.1,63.9,29.93,NNW,338,0.0,0.0,96,0.00,,,0.33,Wunderground v.1.15,2013-02-28 02:53:00,
2013-02-27 21:55:00,65.2,64.0,29.92,NNW,338,0.0,0.0,96,0.00,,,0.33,Wunderground v.1.15,2013-02-28 02:55:00,
2013-02-27 21:58:00,65.1,63.9,29.92,NNW,338,0.0,0.0,96,0.00,,,0.33,Wunderground v.1.15,2013-02-28 02:58:00,
2013-02-27 22:01:00,65.2,64.0,29.92,NNW,338,0.0,0.0,96,0.00,,,0.33,Wunderground v.1.15,2013-02-28 03:01:00,
2013-02-27 22:03:00,65.2,64.0,29.92,NNW,338,0.0,0.0,96,0.00,,,0.33,Wunderground v.1.15,2013-02-28 03:03:00,
2013-02-27 22:06:00,65.3,64.1,29.93,NNW,338,0.0,0.0,96,0.00,,,0.33,Wunderground v.1.15,2013-02-28 03:06:00,
2013-02-27 22:08:00,65.2,64.0,29.93,NNW,338,0.0,0.0,96,0.00,,,0.33,Wunderground v.1.15,2013-02-28 03:08:00,
2013-02-27 22:09:00,65.2,64.0,29.93,NNW,338,0.0,0.0,96,0.00,,,0.33,Wunderground v.1.15,2013-02-28 03:09:00,
2013-02-27 22:12:00,65.3,64.1,29.93,NNW,338,0.0,0.0,96,0.00,,,0.33,Wunderground v.1.15,2013-02-28 03:12:00,
2013-02-27 22:13:00,65.3,64.1,29.93,NNW,338,0.0,0.0,96,0.00,,,0.33,Wunderground v.1.15,2013-02-28 03:13:00,
2013-02-27 22:15:00,65.3,64.1,29.93,NNW,338,0.0,0.0,96,0.00,,,0.33,Wunderground v.1.15,2013-02-28 03:15:00,
2013-02-27 22:18:00,65.3,64.1,29.93,NNW,338,0.0,0.0,96,0.00,,,0.33,Wunderground v.1.15,2013-02-28 03:18:00,
2013-02-27 22:19:00,65.3,64.1,29.93,NNW,338,0.0,0.0,96,0.00,,,0.33,Wunderground v.1.15,2013-02-28 03:19:00,
2013-02-27 22:20:00,65.3,64.1,29.93,NNW,338,0.0,0.0,96,0.00,,,0.33,Wunderground v.1.15,2013-02-28 03:20:00,
2013-02-27 22:21:00,65.4,64.2,29.93,NNW,338,0.0,0.0,96,0.00,,,0.33,Wunderground v.1.15,2013-02-28 03:21:00,
2013-02-27 22:23:00,65.4,64.2,29.93,NNW,338,0.0,0.0,96,0.00,,,0.33,Wunderground v.1.15,2013-02-28 03:23:00,
2013-02-27 22:24:00,65.4,64.2,29.93,NNW,338,0.0,0.0,96,0.00,,,0.33,Wunderground v.1.15,2013-02-28 03:24:00,
2013-02-27 22:25:00,65.4,64.2,29.93,NNW,338,0.0,0.0,96,0.00,,,0.33,Wunderground v.1.15,2013-02-28 03:25:00,
2013-02-27 22:27:00,65.4,64.2,29.93,NNW,338,0.0,0.0,96,0.00,,,0.33,Wunderground v.1.15,2013-02-28 03:27:00,
2013-02-27 22:29:00,65.3,64.1,29.93,NNW,338,0.0,0.0,96,0.00,,,0.33,Wunderground v.1.15,2013-02-28 03:29:00,
2013-02-27 22:30:00,65.3,64.1,29.93,NNW,338,0.0,0.0,96,0.00,,,0.33,Wunderground v.1.15,2013-02-28 03:30:00,
2013-02-27 22:31:00,65.4,64.2,29.93,NNW,338,0.0,0.0,96,0.00,,,0.33,Wunderground v.1.15,2013-02-28 03:31:00,
2013-02-27 22:32:00,65.4,64.2,29.93,NNW,338,0.0,0.0,96,0.00,,,0.33,Wunderground v.1.15,2013-02-28 03:32:00,
2013-02-27 22:34:00,65.4,64.2,29.93,NNW,338,0.0,0.0,96,0.00,,,0.33,Wunderground v.1.15,2013-02-28 03:34:00,
2013-02-27 22:35:00,65.4,64.2,29.93,NNW,338,0.0,0.0,96,0.00,,,0.33,Wunderground v.1.15,2013-02-28 03:35:00,
2013-02-27 22:37:00,65.4,64.2,29.93,NNW,338,0.0,0.0,96,0.00,,,0.33,Wunderground v.1.15,2013-02-28 03:37:00,
2013-02-27 22:38:00,65.4,64.2,29.93,NNW,338,0.0,0.0,96,0.00,,,0.33,Wunderground v.1.15,2013-02-28 03:38:00,
2013-02-27 22:39:00,65.3,64.1,29.93,NNW,338,0.0,0.0,96,0.00,,,0.33,Wunderground v.1.15,2013-02-28 03:39:00,
2013-02-27 22:40:00,65.3,64.1,29.93,NNW,338,0.0,0.0,96,0.00,,,0.33,Wunderground v.1.15,2013-02-28 03:40:00,
2013-02-27 22:43:00,65.3,64.1,29.93,NNW,338,0.0,0.0,96,0.00,,,0.33,Wunderground v.1.15,2013-02-28 03:43:00,
2013-02-27 22:44:00,65.3,64.1,29.92,NNW,338,0.0,0.0,96,0.00,,,0.33,Wunderground v.1.15,2013-02-28 03:44:00,
2013-02-27 22:47:00,65.2,64.0,29.92,NNW,338,0.0,0.0,96,0.00,,,0.33,Wunderground v.1.15,2013-02-28 03:47:00,
2013-02-27 22:48:00,65.2,64.0,29.93,NNW,338,0.0,0.0,96,0.00,,,0.33,Wunderground v.1.15,2013-02-28 03:48:00,
2013-02-27 22:52:00,65.3,64.1,29.93,NNW,338,0.0,0.0,96,0.00,,,0.33,Wunderground v.1.15,2013-02-28 03:52:00,
2013-02-27 22:53:00,65.3,64.1,29.93,NNW,338,0.0,0.0,96,0.00,,,0.33,Wunderground v.1.15,2013-02-28 03:53:00,
2013-02-27 22:54:00,65.3,64.1,29.93,NNW,338,0.0,0.0,96,0.00,,,0.33,Wunderground v.1.15,2013-02-28 03:54:00,
2013-02-27 22:57:00,65.4,64.2,29.92,NNW,338,0.0,0.0,96,0.00,,,0.33,Wunderground v.1.15,2013-02-28 03:57:00,
2013-02-27 22:58:00,65.4,64.2,29.92,NNW,338,0.0,0.0,96,0.00,,,0.33,Wunderground v.1.15,2013-02-28 03:58:00,
2013-02-27 22:59:00,65.4,64.2,29.92,NNW,338,0.0,0.0,96,0.00,,,0.33,Wunderground v.1.15,2013-02-28 03:59:00,
2013-02-27 23:00:00,65.4,64.2,29.92,NNW,338,0.0,0.0,96,0.00,,,0.33,Wunderground v.1.15,2013-02-28 04:00:00,
2013-02-27 23:02:00,65.4,64.2,29.92,NNW,338,0.0,0.0,96,0.00,,,0.33,Wunderground v.1.15,2013-02-28 04:02:00,
2013-02-27 23:04:00,65.4,64.2,29.92,NNW,338,0.0,0.0,96,0.00,,,0.33,Wunderground v.1.15,2013-02-28 04:04:00,
2013-02-27 23:05:00,65.5,64.3,29.92,NNW,338,0.0,0.0,96,0.00,,,0.33,Wunderground v.1.15,2013-02-28 04:05:00,
2013-02-27 23:07:00,65.5,64.3,29.92,NNW,338,0.0,0.0,96,0.00,,,0.33,Wunderground v.1.15,2013-02-28 04:07:00,
2013-02-27 23:10:00,65.4,64.2,29.92,NNW,338,0.0,0.0,96,0.00,,,0.33,Wunderground v.1.15,2013-02-28 04:10:00,
2013-02-27 23:11:00,65.4,64.2,29.92,NNW,338,0.0,0.0,96,0.00,,,0.33,Wunderground v.1.15,2013-02-28 04:11:00,
2013-02-27 23:13:00,65.4,64.2,29.92,NNW,338,0.0,0.0,96,0.00,,,0.33,Wunderground v.1.15,2013-02-28 04:13:00,
2013-02-27 23:15:00,65.5,64.3,29.92,NNW,338,0.0,0.0,96,0.00,,,0.33,Wunderground v.1.15,2013-02-28 04:15:00,
2013-02-27 23:16:00,65.5,64.3,29.92,NNW,338,0.0,0.0,96,0.00,,,0.33,Wunderground v.1.15,2013-02-28 04:16:00,
2013-02-27 23:19:00,65.6,64.4,29.93,NNW,338,0.0,0.0,96,0.00,,,0.33,Wunderground v.1.15,2013-02-28 04:19:00,
2013-02-27 23:20:00,65.5,64.3,29.93,NNW,338,0.0,0.0,96,0.00,,,0.33,Wunderground v.1.15,2013-02-28 04:20:00,
2013-02-27 23:21:00,65.5,64.3,29.93,NNW,338,0.0,0.0,96,0.00,,,0.33,Wunderground v.1.15,2013-02-28 04:21:00,
2013-02-27 23:25:00,65.5,64.3,29.93,NNW,338,0.0,0.0,96,0.00,,,0.33,Wunderground v.1.15,2013-02-28 04:25:00,
2013-02-27 23:26:00,65.5,64.3,29.93,NNW,338,0.0,0.0,96,0.00,,,0.33,Wunderground v.1.15,2013-02-28 04:26:00,
2013-02-27 23:27:00,65.5,64.3,29.93,NNW,338,0.0,0.0,96,0.00,,,0.33,Wunderground v.1.15,2013-02-28 04:27:00,
2013-02-27 23:30:00,65.5,64.3,29.92,NNW,338,0.0,0.0,96,0.00,,,0.33,Wunderground v.1.15,2013-02-28 04:30:00,
2013-02-27 23:31:00,65.5,64.3,29.92,NNW,338,0.0,0.0,96,0.00,,,0.33,Wunderground v.1.15,2013-02-28 04:31:00,
2013-02-27 23:33:00,65.5,64.3,29.92,NNW,338,0.0,0.0,96,0.00,,,0.33,Wunderground v.1.15,2013-02-28 04:33:00,
2013-02-27 23:35:00,65.5,64.3,29.92,NNW,338,0.0,0.0,96,0.00,,,0.33,Wunderground v.1.15,2013-02-28 04:35:00,
2013-02-27 23:36:00,65.5,64.3,29.92,NNW,338,0.0,0.0,96,0.00,,,0.33,Wunderground v.1.15,2013-02-28 04:36:00,
2013-02-27 23:38:00,65.5,64.3,29.92,NNW,338,0.0,0.0,96,0.00,,,0.33,Wunderground v.1.15,2013-02-28 04:38:00,
2013-02-27 23:41:00,65.5,64.3,29.93,NNW,338,0.0,0.0,96,0.00,,,0.33,Wunderground v.1.15,2013-02-28 04:41:00,
2013-02-27 23:42:00,65.5,64.3,29.93,NNW,338,0.0,0.0,96,0.00,,,0.33,Wunderground v.1.15,2013-02-28 04:42:00,
2013-02-27 23:44:00,65.5,64.3,29.92,NNW,338,0.0,0.0,96,0.00,,,0.33,Wunderground v.1.15,2013-02-28 04:44:00,
2013-02-27 23:47:00,65.5,64.3,29.92,NNW,338,0.0,0.0,96,0.00,,,0.33,Wunderground v.1.15,2013-02-28 04:47:00,
2013-02-27 23:48:00,65.5,64.3,29.93,NNW,338,0.0,0.0,96,0.00,,,0.33,Wunderground v.1.15,2013-02-28 04:48:00,
2013-02-27 23:50:00,65.5,64.3,29.93,NNW,338,0.0,0.0,96,0.00,,,0.33,Wunderground v.1.15,2013-02-28 04:50:00,
2013-02-27 23:53:00,65.5,64.3,29.92,NNW,338,0.0,0.0,96,0.00,,,0.33,Wunderground v.1.15,2013-02-28 04:53:00,
2013-02-27 23:55:00,65.4,64.2,29.92,NNW,338,0.0,0.0,96,0.00,,,0.33,Wunderground v.1.15,2013-02-28 04:55:00,
2013-02-27 23:58:00,65.4,64.2,29.92,NNW,338,0.0,0.0,96,0.00,,,0.33,Wunderground v.1.15,2013-02-28 04:58:00,